CW4740 Weather Reports


Display with metric or nautical units.
time (UTC)temp
F
wind
direction
speed
MPH
gust
MPH
rain 1hr
in
rain 24hr
in
rain mn
in
humidity
%
barometer
mb
20210123170524 71 319 4.0 8.0 0.00 0.00 0.00 76 1019.2
20210123170423 71 304 4.0 8.0 0.00 0.00 0.00 77 1019.2
20210123170335 71 337 3.0 8.0 0.00 0.00 0.00 77 1019.1
20210123170221 71 287 3.0 8.0 0.00 0.00 0.00 77 1019.2
20210123170126 71 295 3.0 8.0 0.00 0.00 0.00 78 1019.2
20210123165959 71 288 3.0 8.0 0.00 0.00 0.00 77 1019.2
20210123165856 71 323 3.0 8.0 0.00 0.00 0.00 78 1019.2
20210123165754 71 312 3.0 8.0 0.00 0.00 0.00 78 1019.3
20210123165652 71 284 4.0 8.0 0.00 0.00 0.00 78 1019.3
20210123165552 71 300 3.0 8.0 0.00 0.00 0.00 79 1019.2
20210123165444 71 299 2.0 8.0 0.00 0.00 0.00 79 1019.2
20210123165343 71 309 3.0 8.0 0.00 0.00 0.00 79 1019.3
20210123165239 71 330 3.0 8.0 0.00 0.00 0.00 80 1019.3
20210123165136 71 294 2.0 8.0 0.00 0.00 0.00 80 1019.2
20210123165036 70 262 3.0 8.0 0.00 0.00 0.00 79 1019.3
20210123164928 70 261 3.0 8.0 0.00 0.00 0.00 80 1019.2
20210123164826 70 242 2.0 8.0 0.00 0.00 0.00 80 1019.3
20210123164724 70 303 3.0 8.0 0.00 0.00 0.00 80 1019.3
20210123164628 70 261 3.0 8.0 0.00 0.00 0.00 80 1019.4
20210123164529 70 273 3.0 8.0 0.00 0.00 0.00 80 1019.4
20210123164420 70 339 3.0 8.0 0.00 0.00 0.00 80 1019.5
20210123164309 70 309 3.0 8.0 0.00 0.00 0.00 81 1019.4
20210123164209 70 294 3.0 8.0 0.00 0.00 0.00 81 1019.4
20210123164109 70 301 2.0 8.0 0.00 0.00 0.00 82 1019.4
20210123164006 70 304 2.0 6.0 0.00 0.00 0.00 82 1019.5
20210123163901 70 299 2.0 6.0 0.00 0.00 0.00 82 1019.4
20210123163755 70 325 3.0 6.0 0.00 0.00 0.00 82 1019.5
20210123163658 70 282 3.0 6.0 0.00 0.00 0.00 82 1019.4
20210123163621 69 293 3.0 6.0 0.00 0.00 0.00 83 1019.5
20210123163448 69 311 2.0 7.0 0.00 0.00 0.00 83 1019.5
20210123163347 69 290 2.0 7.0 0.00 0.00 0.00 83 1019.5
20210123163241 69 309 2.0 7.0 0.00 0.00 0.00 83 1019.5
20210123163141 69 292 2.0 7.0 0.00 0.00 0.00 83 1019.5
20210123163041 69 292 3.0 7.0 0.00 0.00 0.00 84 1019.5
20210123162928 69 291 3.0 7.0 0.00 0.00 0.00 84 1019.6
20210123162835 69 288 3.0 7.0 0.00 0.00 0.00 84 1019.5
20210123162727 69 284 3.0 7.0 0.00 0.00 0.00 85 1019.6
20210123162624 69 263 3.0 8.0 0.00 0.00 0.00 85 1019.6
20210123162526 69 256 3.0 8.0 0.00 0.00 0.00 85 1019.6
20210123162417 69 325 3.0 8.0 0.00 0.00 0.00 85 1019.6
20210123162316 69 347 3.0 8.0 0.00 0.00 0.00 85 1019.7
20210123162212 69 317 3.0 8.0 0.00 0.00 0.00 86 1019.7
20210123162110 68 322 3.0 8.0 0.00 0.00 0.00 86 1019.7
20210123162017 68 318 3.0 8.0 0.00 0.00 0.00 87 1019.7
20210123161900 68 300 4.0 8.0 0.00 0.00 0.00 87 1019.7
20210123161757 68 279 3.0 8.0 0.00 0.00 0.00 87 1019.7
20210123161653 68 296 3.0 5.0 0.00 0.00 0.00 87 1019.7
20210123161549 68 323 3.0 5.0 0.00 0.00 0.00 87 1019.8
20210123161443 68 314 3.0 5.0 0.00 0.00 0.00 88 1019.8
20210123161349 68 300 3.0 5.0 0.00 0.00 0.00 89 1019.8
20210123161240 68 276 3.0 5.0 0.00 0.00 0.00 89 1019.8
20210123161138 68 299 3.0 7.0 0.00 0.00 0.00 89 1019.9
20210123161034 68 271 3.0 7.0 0.00 0.00 0.00 89 1019.9
20210123160935 68 318 2.0 7.0 0.00 0.00 0.00 90 1019.9
20210123160830 67 287 3.0 7.0 0.00 0.00 0.00 90 1019.9
20210123160730 67 288 4.0 7.0 0.00 0.00 0.00 90 1019.9
20210123160625 67 252 3.0 7.0 0.00 0.00 0.00 91 1019.9
20210123160520 67 281 3.0 7.0 0.00 0.00 0.00 91 1019.9
20210123160415 67 303 4.0 7.0 0.00 0.00 0.00 91 1019.9
20210123160311 67 277 5.0 8.0 0.00 0.00 0.00 92 1019.9
20210123160210 67 271 4.0 8.0 0.00 0.00 0.00 92 1019.9
20210123160110 67 317 3.0 7.0 0.00 0.00 0.00 92 1019.9
20210123160000 66 271 4.0 8.0 0.00 0.00 0.00 92 1020.0
20210123155858 66 263 4.0 9.0 0.00 0.00 0.00 92 1020.0
20210123155756 66 266 3.0 9.0 0.00 0.00 0.00 92 1020.0
20210123155652 66 288 3.0 9.0 0.00 0.00 0.00 92 1020.0
20210123155558 66 299 4.0 9.0 0.00 0.00 0.00 92 1019.9
20210123155446 66 312 5.0 9.0 0.00 0.00 0.00 93 1020.0
20210123155342 66 279 5.0 9.0 0.00 0.00 0.00 93 1020.0
20210123155238 66 296 4.0 9.0 0.00 0.00 0.00 93 1020.0
20210123155140 66 256 3.0 9.0 0.00 0.00 0.00 93 1019.9
20210123155030 66 285 3.0 7.0 0.00 0.00 0.00 93 1019.9
20210123154933 66 274 3.0 7.0 0.00 0.00 0.00 93 1019.9
20210123154825 65 306 3.0 7.0 0.00 0.00 0.00 93 1020.1
20210123154725 65 303 3.0 7.0 0.00 0.00 0.00 93 1020.1
20210123154626 65 297 3.0 7.0 0.00 0.00 0.00 94 1019.9
20210123154525 65 308 3.0 8.0 0.00 0.00 0.00 94 1019.9
20210123154412 65 274 4.0 8.0 0.00 0.00 0.00 94 1020.0
20210123154309 65 261 3.0 8.0 0.00 0.00 0.00 93 1019.9
20210123154221 65 250 4.0 8.0 0.00 0.00 0.00 94 1020.0
20210123154110 65 267 4.0 8.0 0.00 0.00 0.00 94 1020.0
20210123154019 65 272 3.0 8.0 0.00 0.00 0.00 94 1020.0
20210123153900 65 254 3.0 8.0 0.00 0.00 0.00 94 1019.9
20210123153757 64 273 5.0 8.0 0.00 0.00 0.00 94 1019.9
20210123153656 64 253 5.0 8.0 0.00 0.00 0.00 94 1019.9
20210123153557 64 283 4.0 8.0 0.00 0.00 0.00 94 1019.9
20210123153448 64 244 4.0 8.0 0.00 0.00 0.00 94 1020.0
20210123153343 64 252 4.0 8.0 0.00 0.00 0.00 94 1019.9
20210123153241 64 286 3.0 7.0 0.00 0.00 0.00 94 1019.8
20210123153142 64 232 3.0 6.0 0.00 0.00 0.00 94 1019.9
20210123153038 64 306 3.0 6.0 0.00 0.00 0.00 94 1019.9
20210123152937 64 311 3.0 6.0 0.00 0.00 0.00 94 1019.9
20210123152836 64 296 4.0 8.0 0.00 0.00 0.00 94 1019.9
20210123152737 64 269 4.0 8.0 0.00 0.00 0.00 94 1019.8
20210123152633 64 286 4.0 8.0 0.00 0.00 0.00 94 1019.9
20210123152530 64 331 4.0 8.0 0.00 0.00 0.00 94 1019.9
20210123152424 64 312 4.0 8.0 0.00 0.00 0.00 94 1019.8
20210123152319 64 298 4.0 8.0 0.00 0.00 0.00 94 1019.8
20210123152217 63 269 4.0 8.0 0.00 0.00 0.00 94 1019.8
20210123152116 63 304 4.0 8.0 0.00 0.00 0.00 94 1019.8
20210123152024 63 326 3.0 8.0 0.00 0.00 0.00 94 1019.7
20210123151908 63 311 3.0 8.0 0.00 0.00 0.00 94 1019.8
20210123151807 63 305 3.0 8.0 0.00 0.00 0.00 94 1019.7
20210123151704 63 307 3.0 8.0 0.00 0.00 0.00 94 1019.8
20210123151601 63 297 3.0 8.0 0.00 0.00 0.00 94 1019.8
20210123151456 63 288 4.0 8.0 0.00 0.00 0.00 94 1019.8
20210123151354 63 287 4.0 8.0 0.00 0.00 0.00 94 1019.8
20210123151253 63 252 4.0 9.0 0.00 0.00 0.00 94 1019.8
20210123151150 63 301 4.0 9.0 0.00 0.00 0.00 94 1019.8
20210123151045 63 286 4.0 9.0 0.00 0.00 0.00 94 1019.8
20210123150939 63 254 4.0 9.0 0.00 0.00 0.00 94 1019.8
20210123150837 63 286 5.0 9.0 0.00 0.00 0.00 94 1019.7
20210123150734 63 266 4.0 9.0 0.00 0.00 0.00 94 1019.8
20210123150632 63 338 4.0 9.0 0.00 0.00 0.00 94 1019.8
20210123150527 63 287 4.0 9.0 0.00 0.00 0.00 94 1019.8
20210123150423 63 263 4.0 9.0 0.00 0.00 0.00 94 1019.8
20210123150323 63 255 4.0 8.0 0.00 0.00 0.00 94 1019.7
20210123150217 63 287 3.0 8.0 0.00 0.00 0.00 94 1019.7
20210123150121 63 263 3.0 8.0 0.00 0.00 0.00 94 1019.7
20210123150021 63 277 3.0 8.0 0.00 0.00 0.00 94 1019.6
20210123145908 63 285 4.0 8.0 0.00 0.00 0.00 94 1019.7
20210123145805 63 273 3.0 8.0 0.00 0.00 0.00 94 1019.7
20210123145703 63 294 2.0 8.0 0.00 0.00 0.00 94 1019.6
20210123145602 63 311 3.0 8.0 0.00 0.00 0.00 94 1019.6
20210123145452 63 289 3.0 8.0 0.00 0.00 0.00 94 1019.6
20210123145349 63 298 4.0 8.0 0.00 0.00 0.00 94 1019.7
20210123145247 62 292 3.0 8.0 0.00 0.00 0.00 94 1019.7
20210123145143 62 284 3.0 8.0 0.00 0.00 0.00 94 1019.6
20210123145038 62 295 4.0 8.0 0.00 0.00 0.00 94 1019.7
20210123144931 62 294 4.0 8.0 0.00 0.00 0.00 94 1019.6
20210123144832 62 291 4.0 9.0 0.00 0.00 0.00 94 1019.6
20210123144733 62 292 4.0 9.0 0.00 0.00 0.00 94 1019.6
20210123144636 62 277 4.0 9.0 0.00 0.00 0.00 94 1019.6
20210123144537 62 248 3.0 9.0 0.00 0.00 0.00 94 1019.6
20210123144417 62 278 3.0 9.0 0.00 0.00 0.00 94 1019.6
20210123144316 62 260 4.0 9.0 0.00 0.00 0.00 94 1019.6
20210123144211 62 257 4.0 9.0 0.00 0.00 0.00 94 1019.6
20210123144115 62 311 5.0 9.0 0.00 0.00 0.00 94 1019.5
20210123144000 62 253 6.0 9.0 0.00 0.00 0.00 94 1019.6
20210123143859 62 267 5.0 8.0 0.00 0.00 0.00 94 1019.5
20210123143756 62 280 3.0 8.0 0.00 0.00 0.00 94 1019.5
20210123143655 62 297 3.0 6.0 0.00 0.00 0.00 94 1019.5
20210123143548 62 298 3.0 6.0 0.00 0.00 0.00 94 1019.4
20210123143444 62 251 2.0 5.0 0.00 0.00 0.00 94 1019.4
20210123143343 62 293 2.0 5.0 0.00 0.00 0.00 94 1019.4
20210123143241 62 294 3.0 7.0 0.00 0.00 0.00 94 1019.5
20210123143142 62 290 3.0 7.0 0.00 0.00 0.00 94 1019.5
20210123143049 62 302 3.0 7.0 0.00 0.00 0.00 94 1019.4
20210123142931 62 289 3.0 7.0 0.00 0.00 0.00 94 1019.5
20210123142828 62 292 2.0 7.0 0.00 0.00 0.00 94 1019.4
20210123142726 62 281 2.0 7.0 0.00 0.00 0.00 94 1019.4
20210123142626 62 284 3.0 7.0 0.00 0.00 0.00 94 1019.3
20210123142518 62 257 3.0 7.0 0.00 0.00 0.00 94 1019.4
20210123142415 62 257 3.0 7.0 0.00 0.00 0.00 94 1019.5
20210123142315 62 265 3.0 7.0 0.00 0.00 0.00 94 1019.4
20210123142209 61 271 3.0 7.0 0.00 0.00 0.00 94 1019.4
20210123142107 61 285 3.0 7.0 0.00 0.00 0.00 94 1019.4
20210123142009 61 262 2.0 6.0 0.00 0.00 0.00 94 1019.4
20210123141858 61 266 3.0 6.0 0.00 0.00 0.00 94 1019.4
20210123141757 61 321 3.0 6.0 0.00 0.00 0.00 94 1019.4
20210123141656 61 307 3.0 5.0 0.00 0.00 0.00 94 1019.4
20210123141551 61 325 3.0 4.0 0.00 0.00 0.00 94 1019.4
20210123141450 61 306 3.0 4.0 0.00 0.00 0.00 94 1019.4
20210123141340 62 334 3.0 4.0 0.00 0.00 0.00 94 1019.4
20210123141238 62 309 3.0 4.0 0.00 0.00 0.00 94 1019.4
20210123141138 62 319 2.0 4.0 0.00 0.00 0.00 94 1019.3
20210123141035 62 280 2.0 4.0 0.00 0.00 0.00 94 1019.2
20210123140928 61 290 2.0 4.0 0.00 0.00 0.00 94 1019.3
20210123140826 61 296 2.0 4.0 0.00 0.00 0.00 94 1019.1
20210123140723 61 302 2.0 4.0 0.00 0.00 0.00 94 1019.2
20210123140624 61 301 2.0 4.0 0.00 0.00 0.00 94 1019.1
20210123140517 61 306 3.0 4.0 0.00 0.00 0.00 94 1019.1
20210123140417 61 277 3.0 4.0 0.00 0.00 0.00 94 1019.1
20210123140312 61 301 2.0 4.0 0.00 0.00 0.00 94 1019.0
20210123140213 61 294 2.0 4.0 0.00 0.00 0.00 94 1019.0
20210123140106 61 289 2.0 4.0 0.00 0.00 0.00 94 1019.0
20210123135959 61 296 2.0 4.0 0.00 0.00 0.00 94 1019.0
20210123135856 61 287 1.0 4.0 0.00 0.00 0.00 94 1019.0
20210123135754 61 286 2.0 4.0 0.00 0.00 0.00 94 1019.0
20210123135650 61 286 2.0 4.0 0.00 0.00 0.00 94 1019.0
20210123135549 61 292 2.0 7.0 0.00 0.00 0.00 94 1018.9
20210123135441 61 298 2.0 7.0 0.00 0.00 0.00 94 1018.9
20210123135338 61 298 2.0 7.0 0.00 0.00 0.00 94 1018.9
20210123135240 61 290 2.0 8.0 0.00 0.00 0.00 94 1018.8
20210123135136 61 277 3.0 8.0 0.00 0.00 0.00 94 1018.9
20210123135031 61 294 2.0 8.0 0.00 0.00 0.00 94 1018.9
20210123134926 61 281 3.0 8.0 0.00 0.00 0.00 94 1018.8
20210123134825 61 291 4.0 8.0 0.00 0.00 0.00 94 1018.8
20210123134723 61 278 5.0 8.0 0.00 0.00 0.00 94 1018.8
20210123134620 61 253 5.0 8.0 0.00 0.00 0.00 94 1018.9
20210123134523 61 280 6.0 8.0 0.00 0.00 0.00 94 1018.8
20210123134411 61 261 5.0 8.0 0.00 0.00 0.00 94 1018.8
20210123134308 61 260 5.0 7.0 0.00 0.00 0.00 94 1018.8
20210123134206 61 268 4.0 7.0 0.00 0.00 0.00 94 1018.8
20210123134104 61 250 3.0 7.0 0.00 0.00 0.00 94 1018.7
20210123133955 61 274 2.0 7.0 0.00 0.00 0.00 94 1018.8
20210123133856 61 283 2.0 7.0 0.00 0.00 0.00 94 1018.8
20210123133752 61 283 2.0 7.0 0.00 0.00 0.00 94 1018.7
20210123133650 61 291 2.0 7.0 0.00 0.00 0.00 94 1018.8
20210123133549 61 300 2.0 7.0 0.00 0.00 0.00 94 1018.8
20210123133442 61 266 2.0 7.0 0.00 0.00 0.00 94 1018.8
20210123133338 61 306 2.0 7.0 0.00 0.00 0.00 94 1018.7
20210123133235 61 234 2.0 7.0 0.00 0.00 0.00 94 1018.7
20210123133135 61 284 2.0 7.0 0.00 0.00 0.00 94 1018.7
20210123133030 61 292 3.0 7.0 0.00 0.00 0.00 94 1018.7
20210123132927 61 252 3.0 7.0 0.00 0.00 0.00 94 1018.6
20210123132822 61 261 2.0 5.0 0.00 0.00 0.00 94 1018.7
20210123132718 61 247 2.0 5.0 0.00 0.00 0.00 94 1018.7
20210123132615 61 269 2.0 5.0 0.00 0.00 0.00 94 1018.6
20210123132517 61 302 3.0 5.0 0.00 0.00 0.00 94 1018.6
20210123132409 61 300 3.0 5.0 0.00 0.00 0.00 94 1018.7
20210123132307 61 294 3.0 5.0 0.00 0.00 0.00 94 1018.7
20210123132203 61 305 3.0 4.0 0.00 0.00 0.00 94 1018.7
20210123132101 61 290 3.0 4.0 0.00 0.00 0.00 94 1018.8
20210123131955 61 298 3.0 4.0 0.00 0.00 0.00 94 1018.6
20210123131850 61 291 3.0 4.0 0.00 0.00 0.00 94 1018.7
20210123131746 61 300 3.0 4.0 0.00 0.00 0.00 94 1018.6
20210123131647 61 277 2.0 6.0 0.00 0.00 0.00 94 1018.5
20210123131536 61 295 2.0 6.0 0.00 0.00 0.00 94 1018.5
20210123131435 61 297 2.0 6.0 0.00 0.00 0.00 94 1018.5
20210123131332 61 309 2.0 6.0 0.00 0.00 0.00 94 1018.5
20210123131232 61 294 2.0 8.0 0.00 0.00 0.00 94 1018.4
20210123131135 61 321 2.0 8.0 0.00 0.00 0.00 94 1018.4
20210123131023 61 265 3.0 8.0 0.00 0.00 0.00 94 1018.4
20210123130919 61 270 3.0 8.0 0.00 0.00 0.00 94 1018.4
20210123130817 61 261 2.0 8.0 0.00 0.00 0.00 94 1018.4
20210123130713 61 272 3.0 8.0 0.00 0.00 0.00 94 1018.4
20210123130610 61 277 3.0 8.0 0.00 0.00 0.00 94 1018.4
20210123130518 61 250 4.0 8.0 0.00 0.00 0.00 94 1018.4
20210123130404 61 275 4.0 8.0 0.00 0.00 0.00 94 1018.3
20210123130308 61 263 4.0 7.0 0.00 0.00 0.00 94 1018.4
20210123130200 61 252 3.0 7.0 0.00 0.00 0.00 94 1018.3
20210123130057 61 263 2.0 5.0 0.00 0.00 0.00 94 1018.3
20210123125948 61 241 3.0 5.0 0.00 0.00 0.00 94 1018.3
20210123125847 61 258 3.0 5.0 0.00 0.00 0.00 94 1018.3
20210123125749 61 262 3.0 5.0 0.00 0.00 0.00 94 1018.3
20210123125648 61 248 2.0 5.0 0.00 0.00 0.00 94 1018.3
20210123125538 61 263 2.0 5.0 0.00 0.00 0.00 94 1018.3
20210123125437 61 256 2.0 5.0 0.00 0.00 0.00 94 1018.3
20210123125333 61 252 3.0 7.0 0.00 0.00 0.00 94 1018.2
20210123125234 61 265 3.0 8.0 0.00 0.00 0.00 94 1018.3
20210123125130 61 247 2.0 8.0 0.00 0.00 0.00 94 1018.2
20210123125028 61 258 2.0 8.0 0.00 0.00 0.00 94 1018.2
20210123124917 61 260 3.0 8.0 0.00 0.00 0.00 94 1018.0
20210123124815 61 257 3.0 8.0 0.00 0.00 0.00 94 1018.1
20210123124714 61 258 4.0 8.0 0.00 0.00 0.00 94 1018.1
20210123124617 61 275 4.0 8.0 0.00 0.00 0.00 94 1018.2
20210123124520 61 244 3.0 8.0 0.00 0.00 0.00 94 1018.1
20210123124404 61 252 2.0 8.0 0.00 0.00 0.00 94 1018.1
20210123124311 61 249 3.0 7.0 0.00 0.00 0.00 94 1018.1
20210123124201 61 274 2.0 7.0 0.00 0.00 0.00 94 1018.0
20210123124056 61 251 2.0 7.0 0.00 0.00 0.00 94 1018.0
20210123123950 61 258 4.0 7.0 0.00 0.00 0.00 94 1018.1
20210123123845 61 253 4.0 7.0 0.00 0.00 0.00 94 1018.0
20210123123747 61 241 3.0 5.0 0.00 0.00 0.00 94 1017.9
20210123123646 61 257 3.0 5.0 0.00 0.00 0.00 94 1018.0
20210123123550 61 288 2.0 4.0 0.00 0.00 0.00 94 1018.0
20210123123441 61 264 2.0 4.0 0.00 0.00 0.00 94 1018.0
20210123123334 61 292 1.0 3.0 0.00 0.00 0.00 94 1018.0
20210123123235 61 242 2.0 5.0 0.00 0.00 0.00 94 1018.0
20210123123131 61 242 2.0 5.0 0.00 0.00 0.00 94 1018.0
20210123123029 61 271 2.0 5.0 0.00 0.00 0.00 94 1018.0
20210123122927 61 263 2.0 5.0 0.00 0.00 0.00 94 1018.0
20210123122825 61 261 2.0 5.0 0.00 0.00 0.00 94 1018.1
20210123122722 61 285 2.0 5.0 0.00 0.00 0.00 94 1018.1
20210123122618 61 288 2.0 5.0 0.00 0.00 0.00 94 1018.0
20210123122521 61 243 2.0 5.0 0.00 0.00 0.00 94 1018.1
20210123122409 61 256 2.0 4.0 0.00 0.00 0.00 94 1018.1
20210123122306 61 275 1.0 4.0 0.00 0.00 0.00 94 1018.2
20210123122205 61 242 2.0 4.0 0.00 0.00 0.00 94 1018.2
20210123122103 61 242 2.0 4.0 0.00 0.00 0.00 94 1018.2
20210123121954 61 267 2.0 3.0 0.00 0.00 0.00 94 1018.2
20210123121852 60 261 2.0 3.0 0.00 0.00 0.00 94 1018.1
20210123121748 60 255 2.0 3.0 0.00 0.00 0.00 94 1018.1
20210123121652 60 253 2.0 3.0 0.00 0.00 0.00 94 1018.1
20210123121547 60 263 2.0 3.0 0.00 0.00 0.00 94 1018.1
20210123121440 60 263 2.0 3.0 0.00 0.00 0.00 94 1018.1
20210123121339 60 265 2.0 3.0 0.00 0.00 0.00 94 1018.0
20210123121235 60 265 2.0 3.0 0.00 0.00 0.00 94 1018.0
20210123121134 60 265 2.0 3.0 0.00 0.00 0.00 94 1018.1
20210123121034 60 265 1.0 3.0 0.00 0.00 0.00 94 1018.2
20210123120926 60 265 2.0 3.0 0.00 0.00 0.00 94 1018.1
20210123120821 60 265 1.0 4.0 0.00 0.00 0.00 94 1018.1
20210123120718 60 265 1.0 4.0 0.00 0.00 0.00 94 1018.1
20210123120615 60 288 1.0 7.0 0.00 0.00 0.00 94 1018.1
20210123120514 60 288 2.0 7.0 0.00 0.00 0.00 94 1018.1
20210123120407 60 299 2.0 7.0 0.00 0.00 0.00 94 1018.0
20210123120308 60 277 1.0 7.0 0.00 0.00 0.00 94 1018.0
20210123120205 60 314 2.0 7.0 0.00 0.00 0.00 94 1018.1
20210123120107 60 316 3.0 7.0 0.00 0.00 0.00 94 1018.0
20210123115956 60 269 3.0 7.0 0.00 0.00 0.00 94 1018.0
20210123115853 60 257 3.0 7.0 0.00 0.00 0.00 94 1018.0
20210123115750 60 317 2.0 6.0 0.00 0.00 0.00 94 1018.0
20210123115648 60 317 1.0 3.0 0.00 0.00 0.00 94 1018.0
20210123115544 60 317 1.0 3.0 0.00 0.00 0.00 94 1018.0
20210123115439 60 317 2.0 3.0 0.00 0.00 0.00 94 1017.9
20210123115335 60 294 2.0 3.0 0.00 0.00 0.00 93 1017.9
20210123115232 60 295 2.0 3.0 0.00 0.00 0.00 94 1017.9
20210123115130 60 295 2.0 3.0 0.00 0.00 0.00 94 1017.9
20210123115035 60 292 2.0 3.0 0.00 0.00 0.00 93 1017.8
20210123114924 60 276 2.0 3.0 0.00 0.00 0.00 93 1017.8
20210123114824 60 277 2.0 3.0 0.00 0.00 0.00 93 1017.9
20210123114721 60 289 2.0 3.0 0.00 0.00 0.00 93 1017.8
20210123114618 60 303 2.0 3.0 0.00 0.00 0.00 93 1017.9
20210123114524 60 314 1.0 3.0 0.00 0.00 0.00 93 1017.9
20210123114406 60 315 1.0 2.0 0.00 0.00 0.00 93 1017.7
20210123114308 60 315 0.0 2.0 0.00 0.00 0.00 93 1017.7
20210123114200 60 315 1.0 2.0 0.00 0.00 0.00 93 1017.7
20210123114107 60 315 1.0 4.0 0.00 0.00 0.00 93 1017.7
20210123113949 60 315 1.0 4.0 0.00 0.00 0.00 93 1017.6
20210123113850 60 315 1.0 4.0 0.00 0.00 0.00 93 1017.6
20210123113746 60 315 1.0 4.0 0.00 0.00 0.00 93 1017.6
20210123113627 60 315 1.0 4.0 0.00 0.00 0.00 93 1017.6
20210123113523 60 315 2.0 4.0 0.00 0.00 0.00 93 1017.6
20210123113417 60 315 2.0 4.0 0.00 0.00 0.00 93 1017.5
20210123113315 60 315 2.0 4.0 0.00 0.00 0.00 93 1017.5
20210123113216 60 286 3.0 4.0 0.00 0.00 0.00 93 1017.6
20210123113109 60 319 2.0 4.0 0.00 0.00 0.00 93 1017.6
20210123113010 60 277 1.0 2.0 0.00 0.00 0.00 93 1017.6
20210123112900 60 277 2.0 2.0 0.00 0.00 0.00 93 1017.6
20210123112757 60 271 1.0 3.0 0.00 0.00 0.00 93 1017.5
20210123112658 60 269 1.0 3.0 0.00 0.00 0.00 93 1017.6
20210123112552 60 315 1.0 3.0 0.00 0.00 0.00 93 1017.5
20210123112443 60 315 1.0 3.0 0.00 0.00 0.00 93 1017.5
20210123112343 60 315 1.0 3.0 0.00 0.00 0.00 93 1017.5
20210123112242 60 315 1.0 3.0 0.00 0.00 0.00 93 1017.5
20210123112143 60 315 1.0 3.0 0.00 0.00 0.00 93 1017.5
20210123112033 60 315 1.0 3.0 0.00 0.00 0.00 93 1017.5
20210123111931 60 315 1.0 3.0 0.00 0.00 0.00 93 1017.4
20210123111829 60 315 1.0 3.0 0.00 0.00 0.00 93 1017.4
20210123111729 60 321 1.0 3.0 0.00 0.00 0.00 93 1017.4
20210123111626 60 321 1.0 3.0 0.00 0.00 0.00 93 1017.4
20210123111523 60 309 0.0 2.0 0.00 0.00 0.00 93 1017.3
20210123111415 60 279 1.0 3.0 0.00 0.00 0.00 93 1017.3
20210123111312 60 279 1.0 3.0 0.00 0.00 0.00 93 1017.3
20210123111210 60 279 1.0 3.0 0.00 0.00 0.00 93 1017.3
20210123111107 60 279 1.0 3.0 0.00 0.00 0.00 93 1017.4
20210123110957 60 275 1.0 3.0 0.00 0.00 0.00 93 1017.3
20210123110859 60 267 1.0 3.0 0.00 0.00 0.00 93 1017.2
20210123110756 60 267 1.0 3.0 0.00 0.00 0.00 93 1017.3
20210123110652 60 267 1.0 3.0 0.00 0.00 0.00 93 1017.2
20210123110550 60 267 2.0 3.0 0.00 0.00 0.00 93 1017.2
20210123110442 60 266 1.0 3.0 0.00 0.00 0.00 93 1017.2
20210123110339 60 266 1.0 3.0 0.00 0.00 0.00 93 1017.1
20210123110236 60 274 1.0 3.0 0.00 0.00 0.00 93 1017.2
20210123110136 60 274 1.0 3.0 0.00 0.00 0.00 93 1017.2
20210123110050 60 274 1.0 3.0 0.00 0.00 0.00 93 1017.2
20210123105926 60 261 1.0 3.0 0.00 0.00 0.00 93 1017.2
20210123105827 60 256 1.0 2.0 0.00 0.00 0.00 93 1017.2
20210123105717 60 256 1.0 2.0 0.00 0.00 0.00 93 1017.1
20210123105618 60 256 1.0 3.0 0.00 0.00 0.00 93 1017.2
20210123105518 60 256 1.0 3.0 0.00 0.00 0.00 93 1017.1
20210123105412 60 256 1.0 3.0 0.00 0.00 0.00 93 1017.1
20210123105308 60 256 1.0 3.0 0.00 0.00 0.00 93 1017.1
20210123105208 60 256 1.0 3.0 0.00 0.00 0.00 93 1017.1
20210123105107 60 285 1.0 3.0 0.00 0.00 0.00 93 1017.1
20210123104959 60 264 2.0 3.0 0.00 0.00 0.00 93 1017.1
20210123104859 60 319 2.0 3.0 0.00 0.00 0.00 93 1017.1
20210123104755 60 321 2.0 3.0 0.00 0.00 0.00 93 1017.1
20210123104648 60 295 1.0 3.0 0.00 0.00 0.00 93 1017.0
20210123104539 60 289 1.0 4.0 0.00 0.00 0.00 93 1017.0
20210123104440 60 289 1.0 4.0 0.00 0.00 0.00 93 1017.0
20210123104334 60 289 1.0 4.0 0.00 0.00 0.00 93 1017.0
20210123104237 60 289 2.0 4.0 0.00 0.00 0.00 93 1016.9
20210123104133 60 278 2.0 4.0 0.00 0.00 0.00 93 1016.9
20210123104038 60 300 2.0 4.0 0.00 0.00 0.00 93 1016.9
20210123103928 60 269 2.0 4.0 0.00 0.00 0.00 93 1016.8
20210123103825 61 253 2.0 4.0 0.00 0.00 0.00 93 1016.7
20210123103719 61 279 2.0 4.0 0.00 0.00 0.00 93 1016.8
20210123103626 61 283 2.0 3.0 0.00 0.00 0.00 93 1016.8
20210123103522 61 281 2.0 3.0 0.00 0.00 0.00 93 1016.8
20210123103413 61 290 2.0 3.0 0.00 0.00 0.00 93 1016.7
20210123103319 61 292 1.0 3.0 0.00 0.00 0.00 93 1016.8
20210123103208 61 266 1.0 3.0 0.00 0.00 0.00 93 1016.7
20210123103107 61 266 1.0 4.0 0.00 0.00 0.00 93 1016.7
20210123102955 61 266 1.0 4.0 0.00 0.00 0.00 93 1016.8
20210123102855 61 266 1.0 4.0 0.00 0.00 0.00 93 1016.7
20210123102752 61 266 1.0 4.0 0.00 0.00 0.00 93 1016.7
20210123102652 61 266 1.0 4.0 0.00 0.00 0.00 93 1016.7
20210123102549 61 266 1.0 5.0 0.00 0.00 0.00 93 1016.7
20210123102438 61 265 1.0 5.0 0.00 0.00 0.00 93 1016.8
20210123102338 61 265 2.0 5.0 0.00 0.00 0.00 93 1016.7
20210123102232 61 265 2.0 5.0 0.00 0.00 0.00 93 1016.7
20210123102129 61 252 2.0 5.0 0.00 0.00 0.00 93 1016.7
20210123102032 61 252 2.0 5.0 0.00 0.00 0.00 93 1016.7
20210123101926 61 277 2.0 5.0 0.00 0.00 0.00 93 1016.7
20210123101821 61 261 2.0 5.0 0.00 0.00 0.00 93 1016.7
20210123101719 61 254 1.0 4.0 0.00 0.00 0.00 93 1016.7
20210123101615 61 254 3.0 4.0 0.00 0.00 0.00 93 1016.7
20210123101540 61 254 2.0 4.0 0.00 0.00 0.00 93 1016.7
20210123101408 61 260 2.0 4.0 0.00 0.00 0.00 93 1016.7
20210123101303 61 266 3.0 4.0 0.00 0.00 0.00 93 1016.7
20210123101201 60 262 2.0 4.0 0.00 0.00 0.00 93 1016.7
20210123101100 61 260 1.0 3.0 0.00 0.00 0.00 93 1016.7
20210123100950 60 260 1.0 3.0 0.00 0.00 0.00 93 1016.7
20210123100846 60 260 1.0 3.0 0.00 0.00 0.00 93 1016.7
20210123100745 60 258 1.0 3.0 0.00 0.00 0.00 93 1016.7
20210123100640 60 258 1.0 3.0 0.00 0.00 0.00 93 1016.6
20210123100533 60 258 1.0 3.0 0.00 0.00 0.00 93 1016.7
20210123100431 60 273 1.0 3.0 0.00 0.00 0.00 93 1016.7
20210123100328 60 273 2.0 3.0 0.00 0.00 0.00 93 1016.7
20210123100227 60 275 2.0 3.0 0.00 0.00 0.00 93 1016.7
20210123100126 60 259 2.0 3.0 0.00 0.00 0.00 93 1016.7
20210123100022 60 259 2.0 3.0 0.00 0.00 0.00 93 1016.7
20210123095920 60 259 2.0 4.0 0.00 0.00 0.00 93 1016.7
20210123095814 60 259 2.0 4.0 0.00 0.00 0.00 93 1016.7
20210123095711 60 269 2.0 4.0 0.00 0.00 0.00 93 1016.7
20210123095610 60 273 1.0 4.0 0.00 0.00 0.00 93 1016.8
20210123095518 60 273 1.0 4.0 0.00 0.00 0.00 93 1016.8
20210123095359 60 259 1.0 4.0 0.00 0.00 0.00 93 1016.8
20210123095256 60 259 2.0 4.0 0.00 0.00 0.00 93 1016.9
20210123095157 60 259 2.0 4.0 0.00 0.00 0.00 92 1016.8
20210123095049 60 254 2.0 4.0 0.00 0.00 0.00 92 1016.8
20210123094943 60 291 2.0 4.0 0.00 0.00 0.00 92 1016.8
20210123094903 60 262 2.0 4.0 0.00 0.00 0.00 92 1016.8
20210123094736 60 267 2.0 4.0 0.00 0.00 0.00 92 1016.7
20210123094638 60 273 2.0 4.0 0.00 0.00 0.00 92 1016.8
20210123094537 60 272 3.0 4.0 0.00 0.00 0.00 92 1016.8
20210123094427 60 254 3.0 4.0 0.00 0.00 0.00 92 1016.8
20210123094324 60 244 3.0 4.0 0.00 0.00 0.00 92 1016.8
20210123094225 60 253 3.0 4.0 0.00 0.00 0.00 92 1016.8
20210123094117 60 252 2.0 4.0 0.00 0.00 0.00 92 1016.8
20210123094026 60 269 2.0 4.0 0.00 0.00 0.00 92 1016.8
20210123093910 60 271 2.0 4.0 0.00 0.00 0.00 92 1016.8
20210123093807 60 257 1.0 4.0 0.00 0.00 0.00 92 1016.8
20210123093704 60 255 1.0 4.0 0.00 0.00 0.00 92 1016.8
20210123093613 60 254 1.0 4.0 0.00 0.00 0.00 92 1016.7
20210123093454 60 254 2.0 4.0 0.00 0.00 0.00 92 1016.8
20210123093352 60 268 2.0 4.0 0.00 0.00 0.00 92 1016.8
20210123093252 60 257 2.0 4.0 0.00 0.00 0.00 92 1016.8
20210123093151 60 265 2.0 4.0 0.00 0.00 0.00 92 1016.9
20210123093047 60 264 2.0 4.0 0.00 0.00 0.00 92 1016.8
20210123092940 60 271 1.0 4.0 0.00 0.00 0.00 92 1016.8
20210123092839 60 271 2.0 4.0 0.00 0.00 0.00 92 1016.8
20210123092736 60 257 2.0 4.0 0.00 0.00 0.00 92 1016.8
20210123092645 60 259 1.0 4.0 0.00 0.00 0.00 92 1016.8
20210123092532 60 259 1.0 4.0 0.00 0.00 0.00 92 1016.9
20210123092425 60 259 1.0 4.0 0.00 0.00 0.00 92 1016.9
20210123092321 60 259 2.0 4.0 0.00 0.00 0.00 92 1016.8
20210123092228 60 259 2.0 4.0 0.00 0.00 0.00 92 1016.8
20210123092116 60 262 1.0 3.0 0.00 0.00 0.00 92 1016.8
20210123092020 60 262 1.0 3.0 0.00 0.00 0.00 92 1016.8
20210123091910 60 262 1.0 3.0 0.00 0.00 0.00 92 1016.8
20210123091805 60 248 1.0 3.0 0.00 0.00 0.00 92 1016.8
20210123091702 60 267 2.0 3.0 0.00 0.00 0.00 92 1016.8
20210123091601 60 257 2.0 3.0 0.00 0.00 0.00 92 1016.8
20210123091451 60 257 1.0 3.0 0.00 0.00 0.00 92 1016.8
20210123091349 60 257 1.0 3.0 0.00 0.00 0.00 92 1016.8
20210123091246 60 257 1.0 3.0 0.00 0.00 0.00 92 1016.8
20210123091143 60 257 1.0 2.0 0.00 0.00 0.00 92 1016.9
20210123091049 60 257 1.0 2.0 0.00 0.00 0.00 92 1016.8
20210123090936 60 257 1.0 2.0 0.00 0.00 0.00 92 1016.9
20210123090831 60 257 1.0 2.0 0.00 0.00 0.00 92 1016.9
20210123090730 60 257 0.0 2.0 0.00 0.00 0.00 92 1016.8
20210123090627 60 257 1.0 2.0 0.00 0.00 0.00 92 1016.9
20210123090527 60 257 1.0 2.0 0.00 0.00 0.00 92 1016.8
20210123090424 60 257 1.0 2.0 0.00 0.00 0.00 92 1016.8
20210123090320 60 257 0.0 2.0 0.00 0.00 0.00 92 1016.8
20210123090218 60 257 1.0 4.0 0.00 0.00 0.00 92 1016.8
20210123090114 60 257 0.0 4.0 0.00 0.00 0.00 92 1016.8
20210123090025 60 257 0.0 4.0 0.00 0.00 0.00 92 1016.9
20210123085903 60 257 1.0 4.0 0.00 0.00 0.00 92 1016.9
20210123085759 60 257 1.0 4.0 0.00 0.00 0.00 92 1016.9
20210123085700 60 257 1.0 4.0 0.00 0.00 0.00 92 1016.8
20210123085556 60 257 1.0 4.0 0.00 0.00 0.00 92 1016.9
20210123085451 60 256 2.0 4.0 0.00 0.00 0.00 92 1016.8
20210123085347 60 255 2.0 4.0 0.00 0.00 0.00 92 1016.8
20210123085233 60 263 2.0 4.0 0.00 0.00 0.00 92 1016.8
20210123085135 60 264 1.0 3.0 0.00 0.00 0.00 92 1016.9
20210123085029 60 264 1.0 3.0 0.00 0.00 0.00 92 1016.9
20210123084916 60 264 1.0 3.0 0.00 0.00 0.00 92 1016.9
20210123084815 60 264 1.0 4.0 0.00 0.00 0.00 92 1016.9
20210123084714 60 264 0.0 4.0 0.00 0.00 0.00 92 1016.9
20210123084609 60 264 1.0 4.0 0.00 0.00 0.00 92 1016.9
20210123084500 60 264 1.0 4.0 0.00 0.00 0.00 92 1016.9
20210123084357 60 264 1.0 4.0 0.00 0.00 0.00 92 1017.0
20210123084309 60 264 1.0 4.0 0.00 0.00 0.00 92 1016.9
20210123084154 60 264 1.0 4.0 0.00 0.00 0.00 92 1017.0
20210123084051 60 264 2.0 4.0 0.00 0.00 0.00 92 1016.9
20210123083944 60 264 1.0 4.0 0.00 0.00 0.00 91 1017.0
20210123083847 60 261 1.0 2.0 0.00 0.00 0.00 91 1017.0
20210123083743 60 261 1.0 2.0 0.00 0.00 0.00 91 1017.0
20210123083641 60 261 0.0 2.0 0.00 0.00 0.00 91 1016.9
20210123083538 60 261 1.0 3.0 0.00 0.00 0.00 91 1016.9
20210123083432 60 261 1.0 3.0 0.00 0.00 0.00 91 1016.9
20210123083343 60 261 1.0 3.0 0.00 0.00 0.00 91 1016.9
20210123083228 60 261 1.0 3.0 0.00 0.00 0.00 91 1016.9
20210123083133 60 260 1.0 3.0 0.00 0.00 0.00 91 1016.9
20210123083037 60 260 1.0 3.0 0.00 0.00 0.00 91 1016.8
20210123082916 60 260 1.0 3.0 0.00 0.00 0.00 91 1016.9
20210123082810 60 260 1.0 3.0 0.00 0.00 0.00 91 1016.8
20210123082710 60 260 1.0 3.0 0.00 0.00 0.00 91 1016.9
20210123082607 60 265 0.0 3.0 0.00 0.00 0.00 91 1016.8
20210123082507 60 265 1.0 3.0 0.00 0.00 0.00 91 1016.8
20210123082358 60 265 2.0 3.0 0.00 0.00 0.00 91 1016.8
20210123082256 60 265 2.0 3.0 0.00 0.00 0.00 91 1016.8
20210123082151 60 263 1.0 3.0 0.00 0.00 0.00 91 1016.8
20210123082049 60 262 1.0 4.0 0.00 0.00 0.00 91 1016.8
20210123081946 60 262 2.0 4.0 0.00 0.00 0.00 91 1016.8
20210123081838 60 262 1.0 4.0 0.00 0.00 0.00 91 1016.8
20210123081736 60 262 1.0 4.0 0.00 0.00 0.00 91 1016.8
20210123081635 60 262 1.0 4.0 0.00 0.00 0.00 91 1016.8
20210123081526 60 257 2.0 4.0 0.00 0.00 0.00 91 1016.9
20210123081423 60 257 2.0 4.0 0.00 0.00 0.00 91 1016.9
20210123081327 60 257 2.0 4.0 0.00 0.00 0.00 91 1017.0
20210123081220 60 257 2.0 4.0 0.00 0.00 0.00 91 1016.9
20210123081123 60 257 2.0 4.0 0.00 0.00 0.00 91 1016.9
20210123081021 60 254 1.0 4.0 0.00 0.00 0.00 91 1016.9
20210123080910 60 254 1.0 4.0 0.00 0.00 0.00 91 1017.0
20210123080810 61 254 2.0 6.0 0.00 0.00 0.00 91 1016.9
20210123080715 61 257 2.0 6.0 0.00 0.00 0.00 91 1016.9
20210123080604 61 258 3.0 6.0 0.00 0.00 0.00 91 1016.9
20210123080453 60 246 2.0 6.0 0.00 0.00 0.00 91 1016.9
20210123080356 61 259 2.0 6.0 0.00 0.00 0.00 91 1016.9
20210123080250 61 256 2.0 6.0 0.00 0.00 0.00 91 1016.9
20210123080148 61 269 2.0 6.0 0.00 0.00 0.00 91 1017.0
20210123080041 61 257 3.0 6.0 0.00 0.00 0.00 91 1017.0
20210123075934 61 257 3.0 6.0 0.00 0.00 0.00 91 1017.0
20210123075830 61 277 2.0 4.0 0.00 0.00 0.00 91 1017.0
20210123075732 61 277 2.0 4.0 0.00 0.00 0.00 91 1016.9
20210123075630 61 280 2.0 4.0 0.00 0.00 0.00 91 1017.0
20210123075531 61 255 2.0 4.0 0.00 0.00 0.00 91 1016.9
20210123075421 61 265 2.0 4.0 0.00 0.00 0.00 91 1017.0
20210123075326 61 265 2.0 4.0 0.00 0.00 0.00 91 1017.0
20210123075216 61 265 2.0 4.0 0.00 0.00 0.00 91 1016.9
20210123075119 61 265 2.0 4.0 0.00 0.00 0.00 91 1017.0
20210123075017 61 265 2.0 4.0 0.00 0.00 0.00 91 1017.0
20210123074902 61 244 1.0 4.0 0.00 0.00 0.00 91 1017.0
20210123074759 61 251 2.0 4.0 0.00 0.00 0.00 91 1016.9
20210123074700 61 245 2.0 4.0 0.00 0.00 0.00 91 1016.9
20210123074554 61 252 2.0 4.0 0.00 0.00 0.00 91 1016.9
20210123074449 61 253 2.0 4.0 0.00 0.00 0.00 91 1016.9
20210123074350 61 263 2.0 4.0 0.00 0.00 0.00 91 1016.9
20210123074246 61 261 2.0 4.0 0.00 0.00 0.00 91 1016.9
20210123074144 61 261 2.0 4.0 0.00 0.00 0.00 91 1017.0
20210123074040 61 265 2.0 4.0 0.00 0.00 0.00 90 1017.0
20210123073935 61 263 2.0 3.0 0.00 0.00 0.00 90 1017.0
20210123073835 61 268 2.0 3.0 0.00 0.00 0.00 90 1016.9
20210123073730 61 261 2.0 3.0 0.00 0.00 0.00 90 1017.0
20210123073627 61 262 2.0 3.0 0.00 0.00 0.00 90 1017.0
20210123073524 61 263 2.0 4.0 0.00 0.00 0.00 90 1017.0
20210123073416 61 263 1.0 4.0 0.00 0.00 0.00 90 1017.0
20210123073315 61 270 1.0 4.0 0.00 0.00 0.00 90 1016.9
20210123073214 61 270 1.0 4.0 0.00 0.00 0.00 90 1016.9
20210123073116 61 270 1.0 4.0 0.00 0.00 0.00 90 1017.0
20210123073023 61 256 2.0 4.0 0.00 0.00 0.00 90 1016.9
20210123072903 61 259 2.0 4.0 0.00 0.00 0.00 90 1017.0
20210123072801 61 259 2.0 4.0 0.00 0.00 0.00 90 1017.0
20210123072703 61 254 2.0 4.0 0.00 0.00 0.00 90 1017.0
20210123072556 61 275 2.0 4.0 0.00 0.00 0.00 90 1016.9
20210123072449 61 271 2.0 4.0 0.00 0.00 0.00 90 1017.0
20210123072347 61 263 2.0 4.0 0.00 0.00 0.00 90 1017.0
20210123072243 61 265 2.0 4.0 0.00 0.00 0.00 90 1016.9
20210123072142 61 263 1.0 3.0 0.00 0.00 0.00 90 1016.9
20210123072053 61 271 1.0 3.0 0.00 0.00 0.00 90 1017.0
20210123071937 61 271 1.0 3.0 0.00 0.00 0.00 90 1017.0
20210123071834 61 275 1.0 3.0 0.00 0.00 0.00 90 1017.0
20210123071736 61 275 2.0 3.0 0.00 0.00 0.00 90 1016.9
20210123071633 61 275 2.0 3.0 0.00 0.00 0.00 90 1017.0
20210123071531 61 275 2.0 3.0 0.00 0.00 0.00 90 1017.0
20210123071423 61 275 2.0 3.0 0.00 0.00 0.00 90 1017.0
20210123071321 61 275 1.0 3.0 0.00 0.00 0.00 90 1017.0
20210123071223 61 277 1.0 3.0 0.00 0.00 0.00 90 1017.0
20210123071116 61 277 1.0 3.0 0.00 0.00 0.00 90 1017.0
20210123071022 61 277 1.0 3.0 0.00 0.00 0.00 90 1017.0
20210123070907 61 278 1.0 3.0 0.00 0.00 0.00 90 1017.0
20210123070802 61 278 1.0 3.0 0.00 0.00 0.00 90 1017.0
20210123070702 61 278 2.0 3.0 0.00 0.00 0.00 90 1017.0
20210123070600 61 262 2.0 3.0 0.00 0.00 0.00 90 1017.0
20210123070449 61 267 2.0 3.0 0.00 0.00 0.00 90 1016.9
20210123070347 61 267 1.0 3.0 0.00 0.00 0.00 90 1017.0
20210123070249 61 273 1.0 3.0 0.00 0.00 0.00 90 1017.0
20210123070148 61 266 1.0 3.0 0.00 0.00 0.00 90 1017.0
20210123070051 61 266 2.0 3.0 0.00 0.00 0.00 89 1017.0
20210123065939 61 266 2.0 3.0 0.00 0.00 0.00 89 1016.9
20210123065835 61 261 2.0 3.0 0.00 0.00 0.00 89 1017.0
20210123065734 61 254 1.0 3.0 0.00 0.00 0.00 89 1017.0
20210123065629 61 271 2.0 3.0 0.00 0.00 0.00 89 1017.0
20210123065520 61 271 2.0 3.0 0.00 0.00 0.00 89 1017.0
20210123065426 61 250 2.0 3.0 0.00 0.00 0.00 89 1017.1
20210123065318 61 251 2.0 3.0 0.00 0.00 0.00 89 1017.0
20210123065215 61 254 2.0 3.0 0.00 0.00 0.00 89 1017.0
20210123065114 61 254 2.0 3.0 0.00 0.00 0.00 89 1017.1
20210123065026 61 254 2.0 3.0 0.00 0.00 0.00 89 1017.0
20210123064909 61 255 2.0 3.0 0.00 0.00 0.00 89 1017.0
20210123064808 61 255 3.0 3.0 0.00 0.00 0.00 89 1017.1
20210123064704 61 262 2.0 3.0 0.00 0.00 0.00 89 1017.0
20210123064601 61 258 2.0 3.0 0.00 0.00 0.00 89 1017.0
20210123064453 61 265 2.0 3.0 0.00 0.00 0.00 89 1017.1
20210123064349 61 263 2.0 3.0 0.00 0.00 0.00 89 1017.1
20210123064248 61 263 2.0 4.0 0.00 0.00 0.00 89 1017.1
20210123064145 61 263 2.0 4.0 0.00 0.00 0.00 89 1017.1
20210123064045 61 267 1.0 4.0 0.00 0.00 0.00 89 1017.1
20210123063938 61 267 2.0 4.0 0.00 0.00 0.00 89 1017.1
20210123063836 61 261 2.0 4.0 0.00 0.00 0.00 89 1017.2
20210123063734 61 261 2.0 4.0 0.00 0.00 0.00 89 1017.1
20210123063629 62 259 2.0 4.0 0.00 0.00 0.00 89 1017.2
20210123063527 62 259 2.0 4.0 0.00 0.00 0.00 89 1017.2
20210123063423 62 252 2.0 4.0 0.00 0.00 0.00 89 1017.2
20210123063321 62 260 1.0 3.0 0.00 0.00 0.00 89 1017.2
20210123063224 62 260 2.0 3.0 0.00 0.00 0.00 89 1017.2
20210123063120 62 260 2.0 3.0 0.00 0.00 0.00 89 1017.2
20210123063024 62 261 2.0 3.0 0.00 0.00 0.00 89 1017.2
20210123062913 62 261 2.0 4.0 0.00 0.00 0.00 89 1017.2
20210123062810 62 263 2.0 4.0 0.00 0.00 0.00 89 1017.2
20210123062707 62 263 2.0 4.0 0.00 0.00 0.00 89 1017.2
20210123062604 62 254 2.0 4.0 0.00 0.00 0.00 89 1017.2
20210123062459 62 254 2.0 4.0 0.00 0.00 0.00 89 1017.2
20210123062352 62 254 2.0 4.0 0.00 0.00 0.00 89 1017.3
20210123062248 62 254 2.0 4.0 0.00 0.00 0.00 89 1017.2
20210123062150 62 254 3.0 4.0 0.00 0.00 0.00 89 1017.3
20210123062047 62 252 2.0 4.0 0.00 0.00 0.00 88 1017.2
20210123061939 62 262 2.0 3.0 0.00 0.00 0.00 88 1017.3
20210123061839 62 264 1.0 3.0 0.00 0.00 0.00 88 1017.2
20210123061734 62 271 1.0 4.0 0.00 0.00 0.00 88 1017.3
20210123061636 62 271 1.0 4.0 0.00 0.00 0.00 88 1017.2
20210123061537 62 271 1.0 4.0 0.00 0.00 0.00 88 1017.2
20210123061425 62 271 1.0 4.0 0.00 0.00 0.00 88 1017.3
20210123061321 62 271 0.0 4.0 0.00 0.00 0.00 88 1017.3
20210123061215 62 271 1.0 4.0 0.00 0.00 0.00 88 1017.2
20210123061113 62 271 2.0 4.0 0.00 0.00 0.00 88 1017.2
20210123061020 62 235 2.0 4.0 0.00 0.00 0.00 88 1017.2
20210123060851 62 247 2.0 4.0 0.00 0.00 0.00 88 1017.3
20210123060755 62 247 2.0 5.0 0.00 0.00 0.00 88 1017.3
20210123060652 62 246 2.0 5.0 0.00 0.00 0.00 88 1017.3
20210123060552 62 261 1.0 5.0 0.00 0.00 0.00 88 1017.4
20210123060440 62 261 1.0 5.0 0.00 0.00 0.00 88 1017.4
20210123060344 62 261 2.0 5.0 0.00 0.00 0.00 88 1017.4
20210123060235 62 261 1.0 5.0 0.00 0.00 0.00 88 1017.4
20210123060148 62 279 1.0 5.0 0.00 0.00 0.00 88 1017.4
20210123060034 62 279 2.0 5.0 0.00 0.00 0.00 88 1017.4
20210123055927 62 265 2.0 4.0 0.00 0.00 0.00 88 1017.4
20210123055818 62 296 2.0 4.0 0.00 0.00 0.00 88 1017.4
20210123055717 62 269 1.0 4.0 0.00 0.00 0.00 88 1017.4
20210123055614 62 277 1.0 3.0 0.00 0.00 0.00 88 1017.3
20210123055521 62 276 1.0 3.0 0.00 0.00 0.00 88 1017.4
20210123055406 62 269 1.0 3.0 0.00 0.00 0.00 88 1017.4
20210123055308 62 269 1.0 3.0 0.00 0.00 0.00 88 1017.4
20210123055200 62 269 1.0 3.0 0.00 0.00 0.00 88 1017.4
20210123055058 62 269 2.0 3.0 0.00 0.00 0.00 88 1017.4
20210123054954 62 271 1.0 3.0 0.00 0.00 0.00 88 1017.4
20210123054854 62 271 1.0 3.0 0.00 0.00 0.00 88 1017.3
20210123054748 62 271 1.0 3.0 0.00 0.00 0.00 88 1017.4
20210123054644 62 271 1.0 3.0 0.00 0.00 0.00 88 1017.4
20210123054606 62 271 1.0 3.0 0.00 0.00 0.00 88 1017.4
20210123054438 62 271 1.0 3.0 0.00 0.00 0.00 88 1017.3
20210123054328 62 271 1.0 4.0 0.00 0.00 0.00 88 1017.4
20210123054227 62 271 1.0 4.0 0.00 0.00 0.00 88 1017.4
20210123054123 62 271 1.0 4.0 0.00 0.00 0.00 88 1017.3
20210123054025 62 271 2.0 4.0 0.00 0.00 0.00 88 1017.4
20210123053929 62 272 1.0 4.0 0.00 0.00 0.00 88 1017.4
20210123053816 62 272 1.0 6.0 0.00 0.00 0.00 88 1017.4
20210123053713 62 257 1.0 6.0 0.00 0.00 0.00 88 1017.4
20210123053613 62 256 2.0 6.0 0.00 0.00 0.00 88 1017.3
20210123053521 62 261 2.0 6.0 0.00 0.00 0.00 88 1017.3
20210123053400 62 290 2.0 6.0 0.00 0.00 0.00 88 1017.3
20210123053259 62 271 2.0 6.0 0.00 0.00 0.00 88 1017.3
20210123053159 62 279 1.0 6.0 0.00 0.00 0.00 88 1017.3
20210123053057 62 287 2.0 6.0 0.00 0.00 0.00 88 1017.3
20210123052951 62 267 2.0 6.0 0.00 0.00 0.00 88 1017.3
20210123052844 62 290 1.0 3.0 0.00 0.00 0.00 88 1017.3
20210123052746 62 294 1.0 3.0 0.00 0.00 0.00 88 1017.3
20210123052643 62 294 1.0 3.0 0.00 0.00 0.00 88 1017.4
20210123052540 62 294 1.0 3.0 0.00 0.00 0.00 88 1017.4
20210123052438 62 295 2.0 3.0 0.00 0.00 0.00 88 1017.4
20210123052337 62 295 2.0 3.0 0.00 0.00 0.00 88 1017.4
20210123052234 62 295 1.0 3.0 0.00 0.00 0.00 88 1017.4
20210123052131 62 297 1.0 3.0 0.00 0.00 0.00 88 1017.4
20210123052024 62 298 1.0 3.0 0.00 0.00 0.00 88 1017.4
20210123051922 62 304 1.0 3.0 0.00 0.00 0.00 88 1017.4
20210123051816 62 304 1.0 3.0 0.00 0.00 0.00 88 1017.5
20210123051716 62 304 2.0 3.0 0.00 0.00 0.00 88 1017.4
20210123051607 62 270 1.0 2.0 0.00 0.00 0.00 88 1017.5
20210123051516 62 269 1.0 2.0 0.00 0.00 0.00 87 1017.4
20210123051359 62 269 1.0 2.0 0.00 0.00 0.00 87 1017.4
20210123051301 62 270 1.0 2.0 0.00 0.00 0.00 87 1017.4
20210123051200 62 269 1.0 2.0 0.00 0.00 0.00 87 1017.4
20210123051056 62 269 1.0 2.0 0.00 0.00 0.00 87 1017.4
20210123050951 62 269 1.0 2.0 0.00 0.00 0.00 87 1017.4
20210123050848 62 269 1.0 2.0 0.00 0.00 0.00 87 1017.3
20210123050745 62 261 1.0 4.0 0.00 0.00 0.00 87 1017.4
20210123050645 62 261 1.0 4.0 0.00 0.00 0.00 87 1017.3
20210123050540 62 261 1.0 4.0 0.00 0.00 0.00 87 1017.3
20210123050437 62 261 1.0 4.0 0.00 0.00 0.00 87 1017.2
20210123050333 62 259 1.0 4.0 0.00 0.00 0.00 87 1017.2
20210123050233 62 259 1.0 4.0 0.00 0.00 0.00 87 1017.2
20210123050133 62 259 2.0 4.0 0.00 0.00 0.00 87 1017.2
20210123050039 62 259 2.0 4.0 0.00 0.00 0.00 87 1017.2
20210123045920 62 259 2.0 4.0 0.00 0.00 0.00 87 1017.2
20210123045818 62 258 2.0 3.0 0.00 0.00 0.00 87 1017.2
20210123045722 62 259 2.0 3.0 0.00 0.00 0.00 87 1017.3
20210123045617 62 259 2.0 3.0 0.00 0.00 0.00 87 1017.2
20210123045518 62 259 2.0 6.0 0.00 0.00 0.00 87 1017.3
20210123045405 62 259 1.0 6.0 0.00 0.00 0.00 87 1017.3
20210123045305 62 257 1.0 6.0 0.00 0.00 0.00 87 1017.3
20210123045159 62 257 1.0 6.0 0.00 0.00 0.00 87 1017.3
20210123045056 62 257 0.0 6.0 0.00 0.00 0.00 87 1017.3
20210123044948 62 257 1.0 6.0 0.00 0.00 0.00 87 1017.3
20210123044844 62 257 2.0 6.0 0.00 0.00 0.00 87 1017.3
20210123044742 62 257 2.0 6.0 0.00 0.00 0.00 87 1017.3
20210123044647 62 257 1.0 2.0 0.00 0.00 0.00 87 1017.3
20210123044538 62 252 0.0 2.0 0.00 0.00 0.00 87 1017.3
20210123044436 62 252 1.0 2.0 0.00 0.00 0.00 87 1017.3
20210123044334 62 252 1.0 2.0 0.00 0.00 0.00 87 1017.3
20210123044232 62 252 1.0 2.0 0.00 0.00 0.00 87 1017.3
20210123044130 62 252 1.0 2.0 0.00 0.00 0.00 87 1017.3
20210123044030 62 252 1.0 3.0 0.00 0.00 0.00 87 1017.4
20210123043920 62 252 0.0 3.0 0.00 0.00 0.00 87 1017.3
20210123043821 62 239 0.0 3.0 0.00 0.00 0.00 87 1017.3
20210123043716 62 239 0.0 3.0 0.00 0.00 0.00 87 1017.3
20210123043617 62 239 0.0 3.0 0.00 0.00 0.00 87 1017.4
20210123043516 62 239 0.0 3.0 0.00 0.00 0.00 87 1017.4
20210123043407 62 239 1.0 3.0 0.00 0.00 0.00 87 1017.4
20210123043305 62 239 1.0 3.0 0.00 0.00 0.00 87 1017.3
20210123043205 62 239 1.0 3.0 0.00 0.00 0.00 87 1017.3
20210123043058 63 239 1.0 3.0 0.00 0.00 0.00 87 1017.4
20210123042952 63 239 1.0 2.0 0.00 0.00 0.00 86 1017.3
20210123042850 63 239 1.0 2.0 0.00 0.00 0.00 86 1017.4
20210123042749 63 231 1.0 2.0 0.00 0.00 0.00 86 1017.3
20210123042644 63 231 1.0 3.0 0.00 0.00 0.00 86 1017.3
20210123042551 63 223 1.0 3.0 0.00 0.00 0.00 86 1017.3
20210123042438 63 223 1.0 3.0 0.00 0.00 0.00 86 1017.3
20210123042338 63 232 1.0 3.0 0.00 0.00 0.00 86 1017.3
20210123042233 63 223 1.0 3.0 0.00 0.00 0.00 86 1017.3
20210123042134 63 207 1.0 3.0 0.00 0.00 0.00 86 1017.3
20210123042025 63 206 1.0 3.0 0.00 0.00 0.00 86 1017.3
20210123041922 63 215 1.0 3.0 0.00 0.00 0.00 86 1017.3
20210123041832 63 215 1.0 3.0 0.00 0.00 0.00 86 1017.4
20210123041725 63 223 1.0 3.0 0.00 0.00 0.00 86 1017.3
20210123041617 63 223 1.0 3.0 0.00 0.00 0.00 86 1017.4
20210123041528 63 229 1.0 3.0 0.00 0.00 0.00 86 1017.4
20210123041407 63 232 1.0 3.0 0.00 0.00 0.00 86 1017.3
20210123041306 63 203 1.0 3.0 0.00 0.00 0.00 86 1017.4
20210123041205 63 212 1.0 3.0 0.00 0.00 0.00 86 1017.4
20210123041101 63 221 1.0 2.0 0.00 0.00 0.00 86 1017.4
20210123040952 63 241 0.0 2.0 0.00 0.00 0.00 86 1017.4
20210123040850 63 242 1.0 2.0 0.00 0.00 0.00 86 1017.5
20210123040746 63 242 1.0 2.0 0.00 0.00 0.00 86 1017.4
20210123040645 63 242 1.0 2.0 0.00 0.00 0.00 86 1017.4
20210123040535 63 242 1.0 2.0 0.00 0.00 0.00 86 1017.5
20210123040441 63 246 1.0 2.0 0.00 0.00 0.00 86 1017.4
20210123040351 63 246 0.0 2.0 0.00 0.00 0.00 86 1017.5
20210123040239 63 246 0.0 2.0 0.00 0.00 0.00 85 1017.5
20210123040132 63 246 1.0 2.0 0.00 0.00 0.00 85 1017.5
20210123040040 63 246 0.0 2.0 0.00 0.00 0.00 85 1017.5
20210123035927 63 246 0.0 2.0 0.00 0.00 0.00 85 1017.5
20210123035823 64 246 0.0 2.0 0.00 0.00 0.00 85 1017.6
20210123035718 64 246 0.0 2.0 0.00 0.00 0.00 85 1017.5
20210123035614 64 246 0.0 2.0 0.00 0.00 0.00 85 1017.5
20210123035516 64 246 0.0 2.0 0.00 0.00 0.00 85 1017.5
20210123035401 64 246 0.0 2.0 0.00 0.00 0.00 85 1017.5
20210123035257 64 246 0.0 2.0 0.00 0.00 0.00 85 1017.6
20210123035157 64 246 0.0 2.0 0.00 0.00 0.00 85 1017.5
20210123035058 64 246 0.0 2.0 0.00 0.00 0.00 85 1017.6
20210123034955 64 246 0.0 2.0 0.00 0.00 0.00 85 1017.5
20210123034845 64 246 0.0 2.0 0.00 0.00 0.00 85 1017.6
20210123034746 64 246 0.0 2.0 0.00 0.00 0.00 85 1017.6
20210123034642 64 246 1.0 2.0 0.00 0.00 0.00 85 1017.6
20210123034538 64 246 1.0 2.0 0.00 0.00 0.00 85 1017.6
20210123034436 64 246 1.0 2.0 0.00 0.00 0.00 85 1017.6
20210123034333 64 215 0.0 2.0 0.00 0.00 0.00 85 1017.6
20210123034229 64 215 0.0 1.0 0.00 0.00 0.00 85 1017.6
20210123034127 64 215 0.0 1.0 0.00 0.00 0.00 85 1017.5
20210123034031 64 215 0.0 1.0 0.00 0.00 0.00 85 1017.5
20210123033916 64 215 0.0 1.0 0.00 0.00 0.00 85 1017.6
20210123033817 64 215 0.0 1.0 0.00 0.00 0.00 85 1017.6
20210123033716 64 215 0.0 2.0 0.00 0.00 0.00 85 1017.6
20210123033612 64 215 0.0 2.0 0.00 0.00 0.00 85 1017.6
20210123033532 64 215 0.0 2.0 0.00 0.00 0.00 85 1017.5
20210123033403 64 215 0.0 2.0 0.00 0.00 0.00 85 1017.6
20210123033257 64 215 0.0 2.0 0.00 0.00 0.00 85 1017.6
20210123033159 64 215 0.0 2.0 0.00 0.00 0.00 85 1017.7
20210123033051 64 215 0.0 2.0 0.00 0.00 0.00 85 1017.6
20210123032944 64 215 1.0 2.0 0.00 0.00 0.00 85 1017.6
20210123032842 64 215 1.0 2.0 0.00 0.00 0.00 85 1017.6
20210123032743 64 215 1.0 2.0 0.00 0.00 0.00 84 1017.6
20210123032653 64 215 1.0 2.0 0.00 0.00 0.00 84 1017.7
20210123032532 64 214 0.0 0.0 0.00 0.00 0.00 84 1017.6
20210123032432 64 214 0.0 0.0 0.00 0.00 0.00 84 1017.7
20210123032329 64 214 0.0 0.0 0.00 0.00 0.00 84 1017.6
20210123032228 64 214 0.0 0.0 0.00 0.00 0.00 84 1017.6
20210123032125 64 214 0.0 0.0 0.00 0.00 0.00 84 1017.7
20210123032028 64 214 0.0 0.0 0.00 0.00 0.00 84 1017.7
20210123031914 64 214 0.0 0.0 0.00 0.00 0.00 83 1017.6
20210123031809 64 214 0.0 0.0 0.00 0.00 0.00 84 1017.6
20210123031706 64 214 0.0 0.0 0.00 0.00 0.00 84 1017.6
20210123031602 64 214 0.0 0.0 0.00 0.00 0.00 84 1017.6
20210123031456 64 214 0.0 0.0 0.00 0.00 0.00 84 1017.7
20210123031350 64 214 0.0 0.0 0.00 0.00 0.00 83 1017.6
20210123031247 64 214 0.0 0.0 0.00 0.00 0.00 83 1017.7
20210123031147 64 214 0.0 1.0 0.00 0.00 0.00 83 1017.6
20210123031041 64 214 0.0 1.0 0.00 0.00 0.00 83 1017.6
20210123030949 64 214 0.0 1.0 0.00 0.00 0.00 83 1017.7
20210123030836 64 214 0.0 1.0 0.00 0.00 0.00 83 1017.6
20210123030738 65 214 0.0 1.0 0.00 0.00 0.00 83 1017.6
20210123030632 65 214 0.0 1.0 0.00 0.00 0.00 83 1017.6
20210123030528 65 214 0.0 1.0 0.00 0.00 0.00 83 1017.6
20210123030423 65 214 0.0 1.0 0.00 0.00 0.00 83 1017.6
20210123030319 65 214 0.0 1.0 0.00 0.00 0.00 83 1017.7
20210123030218 65 214 0.0 1.0 0.00 0.00 0.00 83 1017.6
20210123030116 65 214 0.0 0.0 0.00 0.00 0.00 83 1017.6
20210123030026 65 214 0.0 0.0 0.00 0.00 0.00 83 1017.6
20210123025905 65 214 0.0 0.0 0.00 0.00 0.00 83 1017.6
20210123025803 65 214 0.0 0.0 0.00 0.00 0.00 83 1017.6
20210123025659 65 214 0.0 0.0 0.00 0.00 0.00 83 1017.6
20210123025559 65 214 0.0 0.0 0.00 0.00 0.00 83 1017.6
20210123025451 65 214 0.0 0.0 0.00 0.00 0.00 82 1017.6
20210123025350 65 214 0.0 0.0 0.00 0.00 0.00 82 1017.6
20210123025245 65 214 0.0 0.0 0.00 0.00 0.00 82 1017.6
20210123025141 65 214 0.0 0.0 0.00 0.00 0.00 82 1017.6
20210123025039 65 214 0.0 0.0 0.00 0.00 0.00 82 1017.5
20210123024937 65 214 0.0 1.0 0.00 0.00 0.00 82 1017.6
20210123024837 65 214 0.0 1.0 0.00 0.00 0.00 82 1017.6
20210123024734 65 214 0.0 1.0 0.00 0.00 0.00 82 1017.6
20210123024631 65 214 0.0 1.0 0.00 0.00 0.00 82 1017.6
20210123024533 65 214 0.0 1.0 0.00 0.00 0.00 82 1017.5
20210123024419 65 214 0.0 1.0 0.00 0.00 0.00 82 1017.6
20210123024321 65 214 0.0 1.0 0.00 0.00 0.00 82 1017.5
20210123024217 65 214 0.0 1.0 0.00 0.00 0.00 81 1017.6
20210123024114 65 214 0.0 1.0 0.00 0.00 0.00 81 1017.5
20210123024017 65 214 0.0 1.0 0.00 0.00 0.00 81 1017.5
20210123023905 65 214 0.0 0.0 0.00 0.00 0.00 81 1017.6
20210123023806 65 214 0.0 1.0 0.00 0.00 0.00 81 1017.6
20210123023703 65 214 0.0 1.0 0.00 0.00 0.00 81 1017.6
20210123023609 66 214 0.0 1.0 0.00 0.00 0.00 81 1017.6
20210123023453 66 214 0.0 1.0 0.00 0.00 0.00 81 1017.5
20210123023347 66 214 0.0 1.0 0.00 0.00 0.00 81 1017.5
20210123023247 66 214 0.0 1.0 0.00 0.00 0.00 81 1017.5
20210123023145 66 214 0.0 1.0 0.00 0.00 0.00 81 1017.5
20210123023049 66 214 0.0 1.0 0.00 0.00 0.00 81 1017.5
20210123022942 66 214 0.0 1.0 0.00 0.00 0.00 81 1017.6
20210123022852 66 214 0.0 1.0 0.00 0.00 0.00 81 1017.5
20210123022739 66 214 0.0 1.0 0.00 0.00 0.00 81 1017.5
20210123022637 66 214 0.0 1.0 0.00 0.00 0.00 81 1017.5
20210123022529 66 214 0.0 1.0 0.00 0.00 0.00 81 1017.5
20210123022423 66 214 0.0 1.0 0.00 0.00 0.00 81 1017.5
20210123022322 66 214 0.0 2.0 0.00 0.00 0.00 81 1017.5
20210123022223 66 214 0.0 2.0 0.00 0.00 0.00 81 1017.5
20210123022121 66 214 0.0 2.0 0.00 0.00 0.00 81 1017.4
20210123022038 66 214 0.0 2.0 0.00 0.00 0.00 81 1017.5
20210123021905 66 214 0.0 2.0 0.00 0.00 0.00 80 1017.5
20210123021802 66 214 0.0 2.0 0.00 0.00 0.00 80 1017.5
20210123021700 66 214 0.0 2.0 0.00 0.00 0.00 81 1017.5
20210123021603 66 214 0.0 2.0 0.00 0.00 0.00 81 1017.5
20210123021457 66 214 0.0 2.0 0.00 0.00 0.00 80 1017.5
20210123021354 66 214 0.0 2.0 0.00 0.00 0.00 80 1017.4
20210123021248 66 214 0.0 2.0 0.00 0.00 0.00 80 1017.5
20210123021147 66 214 0.0 2.0 0.00 0.00 0.00 80 1017.5
20210123021048 66 214 0.0 2.0 0.00 0.00 0.00 80 1017.5
20210123020940 66 214 0.0 2.0 0.00 0.00 0.00 80 1017.5
20210123020843 66 214 1.0 2.0 0.00 0.00 0.00 80 1017.5
20210123020738 66 214 1.0 2.0 0.00 0.00 0.00 80 1017.5
20210123020640 66 214 1.0 2.0 0.00 0.00 0.00 79 1017.5
20210123020546 66 214 0.0 2.0 0.00 0.00 0.00 79 1017.5
20210123020418 66 214 0.0 0.0 0.00 0.00 0.00 79 1017.5
20210123020316 66 214 0.0 0.0 0.00 0.00 0.00 79 1017.5
20210123020216 66 214 0.0 0.0 0.00 0.00 0.00 79 1017.5
20210123020115 66 214 0.0 0.0 0.00 0.00 0.00 78 1017.5
20210123020022 66 214 0.0 0.0 0.00 0.00 0.00 78 1017.5
20210123015905 66 214 0.0 0.0 0.00 0.00 0.00 78 1017.5
20210123015805 66 214 0.0 0.0 0.00 0.00 0.00 77 1017.5
20210123015700 66 214 0.0 0.0 0.00 0.00 0.00 77 1017.5
20210123015557 66 214 0.0 0.0 0.00 0.00 0.00 77 1017.5
20210123015449 66 214 0.0 0.0 0.00 0.00 0.00 77 1017.6
20210123015351 66 214 0.0 0.0 0.00 0.00 0.00 77 1017.6
20210123015245 67 214 0.0 0.0 0.00 0.00 0.00 77 1017.5
20210123015143 67 214 0.0 0.0 0.00 0.00 0.00 77 1017.6
20210123015040 67 214 0.0 0.0 0.00 0.00 0.00 77 1017.5
20210123014936 67 214 0.0 0.0 0.00 0.00 0.00 77 1017.5
20210123014836 67 214 0.0 0.0 0.00 0.00 0.00 77 1017.5
20210123014734 67 214 0.0 0.0 0.00 0.00 0.00 77 1017.5
20210123014636 67 214 0.0 0.0 0.00 0.00 0.00 77 1017.5
20210123014524 67 214 0.0 0.0 0.00 0.00 0.00 77 1017.5
20210123014420 67 214 0.0 1.0 0.00 0.00 0.00 77 1017.5
20210123014318 67 214 0.0 1.0 0.00 0.00 0.00 77 1017.5
20210123014219 67 214 0.0 1.0 0.00 0.00 0.00 76 1017.5
20210123014113 67 214 0.0 1.0 0.00 0.00 0.00 76 1017.5
20210123014009 67 214 0.0 1.0 0.00 0.00 0.00 76 1017.5
20210123013901 67 214 0.0 1.0 0.00 0.00 0.00 76 1017.5
20210123013801 67 214 0.0 1.0 0.00 0.00 0.00 76 1017.5
20210123013655 67 214 0.0 1.0 0.00 0.00 0.00 76 1017.5
20210123013553 67 214 0.0 1.0 0.00 0.00 0.00 76 1017.5
20210123013443 67 214 0.0 1.0 0.00 0.00 0.00 76 1017.5
20210123013345 67 201 0.0 1.0 0.00 0.00 0.00 76 1017.5
20210123013240 67 201 0.0 1.0 0.00 0.00 0.00 76 1017.4
20210123013140 67 201 0.0 1.0 0.00 0.00 0.00 76 1017.4
20210123013033 67 201 0.0 1.0 0.00 0.00 0.00 76 1017.4
20210123012930 67 201 0.0 1.0 0.00 0.00 0.00 75 1017.3
20210123012827 67 201 1.0 1.0 0.00 0.00 0.00 75 1017.4
20210123012724 67 201 1.0 1.0 0.00 0.00 0.00 75 1017.4
20210123012623 67 201 0.0 1.0 0.00 0.00 0.00 75 1017.3
20210123012529 67 201 0.0 1.0 0.00 0.00 0.00 74 1017.3
20210123012411 68 201 0.0 0.0 0.00 0.00 0.00 74 1017.3
20210123012315 68 201 0.0 0.0 0.00 0.00 0.00 74 1017.2
20210123012208 68 201 0.0 0.0 0.00 0.00 0.00 74 1017.2
20210123012117 68 201 0.0 0.0 0.00 0.00 0.00 74 1017.2
20210123012020 68 201 0.0 0.0 0.00 0.00 0.00 74 1017.1
20210123011900 68 201 0.0 0.0 0.00 0.00 0.00 74 1017.1
20210123011758 68 201 0.0 0.0 0.00 0.00 0.00 74 1017.1
20210123011700 68 201 0.0 0.0 0.00 0.00 0.00 74 1017.2
20210123011551 68 201 0.0 0.0 0.00 0.00 0.00 74 1017.1
20210123011447 68 201 0.0 0.0 0.00 0.00 0.00 74 1017.0
20210123011343 68 201 0.0 0.0 0.00 0.00 0.00 74 1017.1
20210123011240 68 201 0.0 0.0 0.00 0.00 0.00 74 1017.0
20210123011138 68 201 0.0 0.0 0.00 0.00 0.00 73 1017.0
20210123011034 68 201 0.0 1.0 0.00 0.00 0.00 73 1017.1
20210123010934 68 201 0.0 1.0 0.00 0.00 0.00 73 1017.1
20210123010829 68 201 0.0 1.0 0.00 0.00 0.00 73 1017.0
20210123010727 68 201 0.0 1.0 0.00 0.00 0.00 73 1017.0
20210123010626 68 201 0.0 1.0 0.00 0.00 0.00 73 1017.0
20210123010520 68 201 0.0 1.0 0.00 0.00 0.00 73 1017.0
20210123010419 69 201 0.0 1.0 0.00 0.00 0.00 73 1016.9
20210123010313 69 201 0.0 1.0 0.00 0.00 0.00 73 1016.9
20210123010211 69 201 0.0 1.0 0.00 0.00 0.00 73 1016.8
20210123010115 69 201 0.0 1.0 0.00 0.00 0.00 73 1016.9
20210123010022 69 201 0.0 1.0 0.00 0.00 0.00 73 1016.9
20210123005857 69 201 0.0 1.0 0.00 0.00 0.00 73 1016.9
20210123005755 69 201 0.0 0.0 0.00 0.00 0.00 73 1017.0
20210123005656 69 201 0.0 0.0 0.00 0.00 0.00 73 1016.9
20210123005554 69 201 0.0 1.0 0.00 0.00 0.00 73 1017.0
20210123005448 69 201 0.0 1.0 0.00 0.00 0.00 72 1017.0
20210123005352 69 201 0.0 1.0 0.00 0.00 0.00 73 1017.0
20210123005245 69 201 0.0 1.0 0.00 0.00 0.00 73 1016.9
20210123005144 69 201 0.0 1.0 0.00 0.00 0.00 73 1017.0
20210123005040 69 201 0.0 1.0 0.00 0.00 0.00 73 1016.9
20210123004932 69 201 0.0 1.0 0.00 0.00 0.00 73 1016.9
20210123004830 69 201 0.0 1.0 0.00 0.00 0.00 72 1016.9
20210123004728 69 201 0.0 1.0 0.00 0.00 0.00 72 1016.9
20210123004624 69 201 0.0 1.0 0.00 0.00 0.00 72 1016.9
20210123004535 69 201 0.0 1.0 0.00 0.00 0.00 72 1016.9
20210123004415 69 201 0.0 1.0 0.00 0.00 0.00 72 1016.9
20210123004316 69 201 0.0 1.0 0.00 0.00 0.00 72 1016.9
20210123004213 69 201 0.0 1.0 0.00 0.00 0.00 72 1016.9
20210123004107 69 201 0.0 0.0 0.00 0.00 0.00 72 1016.8
20210123003959 69 201 0.0 0.0 0.00 0.00 0.00 72 1016.8
20210123003901 69 201 0.0 0.0 0.00 0.00 0.00 72 1016.9
20210123003803 69 201 0.0 0.0 0.00 0.00 0.00 72 1016.9
20210123003658 69 201 0.0 0.0 0.00 0.00 0.00 72 1016.9
20210123003551 69 201 0.0 0.0 0.00 0.00 0.00 72 1016.8
20210123003448 70 201 0.0 1.0 0.00 0.00 0.00 72 1016.8
20210123003342 70 201 0.0 1.0 0.00 0.00 0.00 72 1016.9
20210123003243 70 201 0.0 1.0 0.00 0.00 0.00 72 1016.8
20210123003138 70 201 0.0 1.0 0.00 0.00 0.00 72 1016.8
20210123003039 70 201 0.0 1.0 0.00 0.00 0.00 71 1016.8
20210123002927 70 201 0.0 1.0 0.00 0.00 0.00 71 1016.8
20210123002824 70 201 0.0 1.0 0.00 0.00 0.00 71 1016.8
20210123002721 70 201 0.0 1.0 0.00 0.00 0.00 71 1016.8
20210123002622 70 201 0.0 1.0 0.00 0.00 0.00 71 1016.8
20210123002518 70 201 0.0 1.0 0.00 0.00 0.00 71 1016.8
20210123002415 70 201 0.0 1.0 0.00 0.00 0.00 71 1016.8
20210123002312 70 201 0.0 1.0 0.00 0.00 0.00 71 1016.8
20210123002210 70 201 0.0 1.0 0.00 0.00 0.00 71 1016.8
20210123002108 70 201 0.0 1.0 0.00 0.00 0.00 71 1016.7
20210123002010 70 201 0.0 1.0 0.00 0.00 0.00 71 1016.7
20210123001858 70 201 0.0 1.0 0.00 0.00 0.00 71 1016.7
20210123001756 70 201 0.0 1.0 0.00 0.00 0.00 71 1016.7
20210123001654 70 201 0.0 1.0 0.00 0.00 0.00 71 1016.7
20210123001549 70 201 0.0 1.0 0.00 0.00 0.00 70 1016.7
20210123001443 70 201 0.0 1.0 0.00 0.00 0.00 70 1016.6
20210123001340 70 201 0.0 1.0 0.00 0.00 0.00 70 1016.7
20210123001237 70 201 0.0 1.0 0.00 0.00 0.00 70 1016.7
20210123001139 70 201 0.0 1.0 0.00 0.00 0.00 70 1016.7
20210123001031 70 201 0.0 1.0 0.00 0.00 0.00 70 1016.6
20210123000928 70 201 0.0 1.0 0.00 0.00 0.00 70 1016.6
20210123000827 70 201 0.0 1.0 0.00 0.00 0.00 70 1016.7
20210123000721 71 201 0.0 1.0 0.00 0.00 0.00 70 1016.6
20210123000619 71 201 0.0 1.0 0.00 0.00 0.00 70 1016.7
20210123000527 71 201 0.0 1.0 0.00 0.00 0.00 70 1016.5
20210123000409 71 201 0.0 0.0 0.00 0.00 0.00 69 1016.6
20210123000309 71 201 0.0 1.0 0.00 0.00 0.00 69 1016.5
20210123000207 71 201 0.0 1.0 0.00 0.00 0.00 69 1016.6
20210123000112 71 201 0.0 1.0 0.00 0.00 0.00 69 1016.5
20210122235954 71 201 0.0 2.0 0.00 0.00 0.00 69 1016.6
20210122235850 71 201 0.0 2.0 0.00 0.00 0.00 69 1016.6
20210122235754 71 201 0.0 2.0 0.00 0.00 0.00 69 1016.6
20210122235650 71 201 0.0 2.0 0.00 0.00 0.00 69 1016.6
20210122235547 71 201 0.0 2.0 0.00 0.00 0.00 69 1016.5
20210122235443 71 201 1.0 2.0 0.00 0.00 0.00 69 1016.5
20210122235340 71 201 1.0 2.0 0.00 0.00 0.00 69 1016.5
20210122235234 71 201 0.0 2.0 0.00 0.00 0.00 69 1016.5
20210122235131 71 201 0.0 1.0 0.00 0.00 0.00 69 1016.5
20210122235028 71 201 0.0 1.0 0.00 0.00 0.00 69 1016.5
20210122234921 71 201 0.0 1.0 0.00 0.00 0.00 69 1016.4
20210122234818 71 201 0.0 1.0 0.00 0.00 0.00 69 1016.4
20210122234724 71 201 0.0 2.0 0.00 0.00 0.00 69 1016.4
20210122234615 71 196 0.0 2.0 0.00 0.00 0.00 68 1016.4
20210122234522 71 196 0.0 2.0 0.00 0.00 0.00 68 1016.3
20210122234406 71 196 0.0 2.0 0.00 0.00 0.00 68 1016.4
20210122234308 71 196 0.0 2.0 0.00 0.00 0.00 68 1016.3
20210122234201 71 196 0.0 2.0 0.00 0.00 0.00 68 1016.3
20210122234059 71 196 0.0 2.0 0.00 0.00 0.00 68 1016.3
20210122233955 72 196 0.0 2.0 0.00 0.00 0.00 68 1016.2
20210122233846 72 196 0.0 2.0 0.00 0.00 0.00 68 1016.3
20210122233745 72 197 0.0 1.0 0.00 0.00 0.00 68 1016.3
20210122233641 72 198 0.0 1.0 0.00 0.00 0.00 68 1016.2
20210122233541 72 198 0.0 1.0 0.00 0.00 0.00 67 1016.2
20210122233437 72 198 0.0 1.0 0.00 0.00 0.00 67 1016.3
20210122233332 72 198 0.0 1.0 0.00 0.00 0.00 67 1016.3
20210122233232 72 198 0.0 1.0 0.00 0.00 0.00 67 1016.2
20210122233128 72 198 0.0 1.0 0.00 0.00 0.00 67 1016.2
20210122233035 72 198 0.0 1.0 0.00 0.00 0.00 67 1016.2
20210122232929 72 198 0.0 1.0 0.00 0.00 0.00 67 1016.2
20210122232826 72 198 0.0 1.0 0.00 0.00 0.00 67 1016.1
20210122232715 72 198 0.0 2.0 0.00 0.00 0.00 67 1016.2
20210122232623 72 198 0.0 2.0 0.00 0.00 0.00 67 1016.2
20210122232523 72 198 0.0 2.0 0.00 0.00 0.00 67 1016.2
20210122232410 72 198 0.0 2.0 0.00 0.00 0.00 66 1016.1
20210122232310 72 198 0.0 3.0 0.00 0.00 0.00 66 1016.1
20210122232158 72 206 0.0 3.0 0.00 0.00 0.00 66 1016.2
20210122232054 72 206 0.0 3.0 0.00 0.00 0.00 66 1016.1
20210122231948 73 206 0.0 3.0 0.00 0.00 0.00 66 1016.2
20210122231847 73 206 1.0 3.0 0.00 0.00 0.00 66 1016.1
20210122231745 73 206 1.0 3.0 0.00 0.00 0.00 66 1016.2
20210122231647 73 206 1.0 3.0 0.00 0.00 0.00 66 1016.1
20210122231537 73 206 1.0 3.0 0.00 0.00 0.00 66 1016.1
20210122231439 73 206 1.0 3.0 0.00 0.00 0.00 66 1016.0
20210122231332 73 243 1.0 3.0 0.00 0.00 0.00 65 1016.0
20210122231231 73 219 1.0 3.0 0.00 0.00 0.00 65 1016.1
20210122231130 73 221 1.0 3.0 0.00 0.00 0.00 65 1016.1
20210122231028 73 218 1.0 3.0 0.00 0.00 0.00 65 1016.1
20210122230931 73 223 1.0 3.0 0.00 0.00 0.00 65 1016.1
20210122230816 73 210 1.0 3.0 0.00 0.00 0.00 65 1016.0
20210122230713 73 209 1.0 3.0 0.00 0.00 0.00 64 1015.9
20210122230612 73 225 1.0 3.0 0.00 0.00 0.00 64 1016.0
20210122230510 74 225 1.0 3.0 0.00 0.00 0.00 64 1016.0
20210122230405 74 241 1.0 3.0 0.00 0.00 0.00 64 1016.0
20210122230304 74 241 1.0 3.0 0.00 0.00 0.00 64 1016.0
20210122230203 74 241 1.0 3.0 0.00 0.00 0.00 64 1016.0
20210122230058 74 241 1.0 3.0 0.00 0.00 0.00 63 1015.9
20210122225951 74 242 1.0 3.0 0.00 0.00 0.00 63 1015.9
20210122225849 74 227 1.0 3.0 0.00 0.00 0.00 63 1015.9
20210122225746 74 213 1.0 3.0 0.00 0.00 0.00 63 1015.9
20210122225644 74 213 1.0 3.0 0.00 0.00 0.00 63 1015.9
20210122225542 74 213 1.0 4.0 0.00 0.00 0.00 62 1015.9
20210122225435 74 207 1.0 4.0 0.00 0.00 0.00 62 1015.9
20210122225331 74 207 1.0 4.0 0.00 0.00 0.00 62 1015.8
20210122225229 75 207 1.0 4.0 0.00 0.00 0.00 62 1015.9
20210122225125 75 209 1.0 4.0 0.00 0.00 0.00 62 1015.9
20210122225021 75 236 1.0 4.0 0.00 0.00 0.00 62 1015.9
20210122224919 75 221 1.0 4.0 0.00 0.00 0.00 61 1015.8
20210122224820 75 219 1.0 4.0 0.00 0.00 0.00 61 1015.8
20210122224717 75 238 1.0 5.0 0.00 0.00 0.00 61 1015.8
20210122224612 75 231 1.0 6.0 0.00 0.00 0.00 61 1015.8
20210122224518 75 231 1.0 6.0 0.00 0.00 0.00 61 1015.8
20210122224404 75 231 1.0 6.0 0.00 0.00 0.00 60 1015.9
20210122224300 75 228 1.0 6.0 0.00 0.00 0.00 60 1015.8
20210122224159 75 236 1.0 6.0 0.00 0.00 0.00 60 1015.8
20210122224057 75 236 2.0 6.0 0.00 0.00 0.00 60 1015.7
20210122223951 75 242 3.0 6.0 0.00 0.00 0.00 59 1015.7
20210122223852 76 235 2.0 6.0 0.00 0.00 0.00 59 1015.8
20210122223745 76 219 2.0 6.0 0.00 0.00 0.00 59 1015.7
20210122223642 76 240 3.0 6.0 0.00 0.00 0.00 59 1015.7
20210122223538 76 243 2.0 6.0 0.00 0.00 0.00 59 1015.7
20210122223434 76 210 1.0 6.0 0.00 0.00 0.00 59 1015.6
20210122223330 76 217 1.0 6.0 0.00 0.00 0.00 59 1015.6
20210122223234 76 222 1.0 6.0 0.00 0.00 0.00 59 1015.7
20210122223125 76 208 1.0 6.0 0.00 0.00 0.00 58 1015.6
20210122223023 76 209 2.0 6.0 0.00 0.00 0.00 58 1015.6
20210122222914 76 267 3.0 6.0 0.00 0.00 0.00 58 1015.6
20210122222812 76 244 3.0 6.0 0.00 0.00 0.00 58 1015.6
20210122222711 76 226 1.0 5.0 0.00 0.00 0.00 58 1015.6
20210122222606 76 218 1.0 5.0 0.00 0.00 0.00 58 1015.6
20210122222521 76 259 1.0 5.0 0.00 0.00 0.00 58 1015.6
20210122222402 76 231 1.0 5.0 0.00 0.00 0.00 58 1015.6
20210122222256 76 232 1.0 5.0 0.00 0.00 0.00 58 1015.6
20210122222159 76 232 2.0 5.0 0.00 0.00 0.00 57 1015.6
20210122222058 77 240 3.0 8.0 0.00 0.00 0.00 57 1015.6
20210122221951 77 249 3.0 8.0 0.00 0.00 0.00 57 1015.6
20210122221846 77 254 2.0 8.0 0.00 0.00 0.00 57 1015.6
20210122221742 77 243 2.0 8.0 0.00 0.00 0.00 57 1015.6
20210122221643 77 262 2.0 8.0 0.00 0.00 0.00 56 1015.6
20210122221530 77 260 2.0 8.0 0.00 0.00 0.00 56 1015.5
20210122221426 77 240 4.0 8.0 0.00 0.00 0.00 56 1015.6
20210122221324 77 252 4.0 8.0 0.00 0.00 0.00 56 1015.5
20210122221222 77 267 2.0 7.0 0.00 0.00 0.00 56 1015.5
20210122221121 77 347 2.0 7.0 0.00 0.00 0.00 56 1015.4
20210122221025 77 221 3.0 7.0 0.00 0.00 0.00 56 1015.4
20210122220910 77 251 3.0 7.0 0.00 0.00 0.00 56 1015.4
20210122220813 77 288 2.0 7.0 0.00 0.00 0.00 56 1015.4
20210122220709 77 261 2.0 7.0 0.00 0.00 0.00 56 1015.4
20210122220607 77 261 4.0 8.0 0.00 0.00 0.00 56 1015.4
20210122220504 77 265 2.0 8.0 0.00 0.00 0.00 56 1015.4
20210122220357 77 263 1.0 8.0 0.00 0.00 0.00 57 1015.4
20210122220256 77 263 2.0 8.0 0.00 0.00 0.00 57 1015.4
20210122220153 77 259 3.0 8.0 0.00 0.00 0.00 57 1015.4
20210122220048 77 222 4.0 8.0 0.00 0.00 0.00 57 1015.5
20210122215942 77 229 4.0 8.0 0.00 0.00 0.00 56 1015.4
20210122215840 77 260 4.0 8.0 0.00 0.00 0.00 56 1015.4
20210122215737 77 282 3.0 9.0 0.00 0.00 0.00 56 1015.4
20210122215637 77 275 2.0 9.0 0.00 0.00 0.00 56 1015.4
20210122215532 77 258 3.0 9.0 0.00 0.00 0.00 56 1015.4
20210122215431 77 257 4.0 9.0 0.00 0.00 0.00 56 1015.4
20210122215328 77 289 3.0 9.0 0.00 0.00 0.00 56 1015.4
20210122215225 77 252 4.0 9.0 0.00 0.00 0.00 56 1015.4
20210122215120 77 250 5.0 9.0 0.00 0.00 0.00 56 1015.4
20210122215021 77 262 4.0 9.0 0.00 0.00 0.00 56 1015.4
20210122214908 77 251 4.0 9.0 0.00 0.00 0.00 56 1015.5
20210122214811 77 240 4.0 8.0 0.00 0.00 0.00 56 1015.3
20210122214705 77 231 4.0 7.0 0.00 0.00 0.00 57 1015.3
20210122214600 77 244 3.0 7.0 0.00 0.00 0.00 57 1015.4
20210122214452 77 250 3.0 7.0 0.00 0.00 0.00 58 1015.4
20210122214352 77 198 4.0 7.0 0.00 0.00 0.00 57 1015.4
20210122214246 77 331 3.0 7.0 0.00 0.00 0.00 58 1015.4
20210122214129 77 250 2.0 7.0 0.00 0.00 0.00 58 1015.4
20210122214036 77 242 2.0 7.0 0.00 0.00 0.00 58 1015.4
20210122213919 77 204 3.0 8.0 0.00 0.00 0.00 58 1015.4
20210122213817 77 223 3.0 8.0 0.00 0.00 0.00 57 1015.3
20210122213714 77 244 3.0 8.0 0.00 0.00 0.00 57 1015.4
20210122213612 77 254 3.0 8.0 0.00 0.00 0.00 57 1015.4
20210122213520 77 264 4.0 8.0 0.00 0.00 0.00 56 1015.4
20210122213402 77 257 4.0 8.0 0.00 0.00 0.00 56 1015.4
20210122213301 77 225 3.0 8.0 0.00 0.00 0.00 56 1015.3
20210122213202 77 250 5.0 10.0 0.00 0.00 0.00 56 1015.4
20210122213100 77 232 5.0 10.0 0.00 0.00 0.00 56 1015.4
20210122212948 77 258 4.0 10.0 0.00 0.00 0.00 57 1015.4
20210122212846 77 222 5.0 10.0 0.00 0.00 0.00 57 1015.4
20210122212746 77 252 5.0 10.0 0.00 0.00 0.00 57 1015.5
20210122212642 77 246 3.0 10.0 0.00 0.00 0.00 56 1015.4
20210122212535 77 247 3.0 10.0 0.00 0.00 0.00 56 1015.4
20210122212446 77 256 4.0 10.0 0.00 0.00 0.00 56 1015.5
20210122212331 77 232 4.0 10.0 0.00 0.00 0.00 55 1015.5
20210122212227 77 307 3.0 9.0 0.00 0.00 0.00 55 1015.5
20210122212123 77 244 4.0 10.0 0.00 0.00 0.00 55 1015.5
20210122212023 77 228 4.0 13.0 0.00 0.00 0.00 55 1015.5
20210122211913 77 271 3.0 13.0 0.00 0.00 0.00 55 1015.5
20210122211811 77 257 3.0 13.0 0.00 0.00 0.00 55 1015.5
20210122211706 77 252 4.0 13.0 0.00 0.00 0.00 55 1015.5
20210122211606 77 223 4.0 13.0 0.00 0.00 0.00 55 1015.6
20210122211456 77 262 6.0 13.0 0.00 0.00 0.00 54 1015.6
20210122211358 77 242 7.0 13.0 0.00 0.00 0.00 54 1015.5
20210122211303 77 238 7.0 13.0 0.00 0.00 0.00 54 1015.6
20210122211154 77 257 7.0 13.0 0.00 0.00 0.00 55 1015.5
20210122211050 77 247 5.0 12.0 0.00 0.00 0.00 55 1015.6
20210122210942 77 253 4.0 12.0 0.00 0.00 0.00 54 1015.5
20210122210842 77 302 5.0 12.0 0.00 0.00 0.00 54 1015.6
20210122210740 77 248 6.0 12.0 0.00 0.00 0.00 54 1015.5
20210122210636 77 192 5.0 12.0 0.00 0.00 0.00 56 1015.6
20210122210531 77 250 4.0 10.0 0.00 0.00 0.00 57 1015.6
20210122210432 77 267 5.0 10.0 0.00 0.00 0.00 57 1015.5
20210122210328 77 248 4.0 10.0 0.00 0.00 0.00 57 1015.5
20210122210225 77 242 6.0 10.0 0.00 0.00 0.00 57 1015.6
20210122210126 77 255 6.0 10.0 0.00 0.00 0.00 56 1015.6
20210122210025 77 265 5.0 10.0 0.00 0.00 0.00 57 1015.5
20210122205917 77 305 6.0 10.0 0.00 0.00 0.00 57 1015.6
20210122205816 77 216 4.0 10.0 0.00 0.00 0.00 57 1015.5
20210122205716 77 259 4.0 10.0 0.00 0.00 0.00 56 1015.5
20210122205609 77 299 5.0 10.0 0.00 0.00 0.00 56 1015.6
20210122205522 77 227 6.0 10.0 0.00 0.00 0.00 56 1015.5
20210122205403 77 250 5.0 10.0 0.00 0.00 0.00 56 1015.6
20210122205258 77 252 4.0 10.0 0.00 0.00 0.00 57 1015.5
20210122205156 77 263 5.0 10.0 0.00 0.00 0.00 57 1015.5
20210122205059 77 249 5.0 10.0 0.00 0.00 0.00 57 1015.5
20210122204947 77 238 5.0 10.0 0.00 0.00 0.00 57 1015.5
20210122204849 77 209 4.0 13.0 0.00 0.00 0.00 57 1015.5
20210122204743 76 254 3.0 13.0 0.00 0.00 0.00 57 1015.5
20210122204655 76 267 4.0 14.0 0.00 0.00 0.00 57 1015.5
20210122204548 76 275 4.0 14.0 0.00 0.00 0.00 57 1015.5
20210122204436 76 235 4.0 14.0 0.00 0.00 0.00 57 1015.6
20210122204331 76 179 6.0 14.0 0.00 0.00 0.00 57 1015.4
20210122204228 76 255 8.0 14.0 0.00 0.00 0.00 57 1015.5
20210122204125 76 257 9.0 14.0 0.00 0.00 0.00 57 1015.5
20210122204021 76 239 8.0 14.0 0.00 0.00 0.00 57 1015.5
20210122203917 76 246 7.0 14.0 0.00 0.00 0.00 57 1015.4
20210122203815 76 239 6.0 13.0 0.00 0.00 0.00 58 1015.5
20210122203714 76 223 4.0 13.0 0.00 0.00 0.00 59 1015.4
20210122203611 76 194 5.0 13.0 0.00 0.00 0.00 58 1015.5
20210122203508 76 240 5.0 13.0 0.00 0.00 0.00 58 1015.5
20210122203404 76 259 5.0 13.0 0.00 0.00 0.00 58 1015.5
20210122203303 76 257 7.0 13.0 0.00 0.00 0.00 58 1015.5
20210122203201 76 225 8.0 13.0 0.00 0.00 0.00 58 1015.5
20210122203100 76 223 7.0 13.0 0.00 0.00 0.00 58 1015.5
20210122202954 76 298 6.0 11.0 0.00 0.00 0.00 58 1015.5
20210122202846 76 266 7.0 14.0 0.00 0.00 0.00 57 1015.5
20210122202748 76 227 7.0 14.0 0.00 0.00 0.00 57 1015.5
20210122202644 76 251 6.0 14.0 0.00 0.00 0.00 58 1015.6
20210122202541 76 290 7.0 14.0 0.00 0.00 0.00 58 1015.6
20210122202434 77 261 5.0 14.0 0.00 0.00 0.00 58 1015.5
20210122202329 77 265 5.0 14.0 0.00 0.00 0.00 58 1015.5
20210122202224 77 253 7.0 14.0 0.00 0.00 0.00 57 1015.6
20210122202124 77 265 7.0 14.0 0.00 0.00 0.00 57 1015.5
20210122202023 77 262 7.0 15.0 0.00 0.00 0.00 58 1015.5
20210122201916 77 254 6.0 15.0 0.00 0.00 0.00 58 1015.5
20210122201813 77 245 8.0 14.0 0.00 0.00 0.00 58 1015.6
20210122201712 77 258 7.0 14.0 0.00 0.00 0.00 58 1015.6
20210122201607 77 243 5.0 10.0 0.00 0.00 0.00 59 1015.5
20210122201500 77 166 5.0 13.0 0.00 0.00 0.00 59 1015.5
20210122201357 77 272 6.0 13.0 0.00 0.00 0.00 59 1015.6
20210122201256 77 241 4.0 13.0 0.00 0.00 0.00 59 1015.5
20210122201152 77 207 3.0 13.0 0.00 0.00 0.00 58 1015.5
20210122201052 77 259 4.0 13.0 0.00 0.00 0.00 58 1015.5
20210122200944 77 221 3.0 13.0 0.00 0.00 0.00 59 1015.6
20210122200842 76 250 4.0 13.0 0.00 0.00 0.00 59 1015.6
20210122200741 76 225 6.0 13.0 0.00 0.00 0.00 58 1015.5
20210122200636 76 246 7.0 13.0 0.00 0.00 0.00 58 1015.6
20210122200539 76 227 7.0 13.0 0.00 0.00 0.00 59 1015.5
20210122200435 76 300 6.0 12.0 0.00 0.00 0.00 59 1015.5
20210122200337 76 251 6.0 13.0 0.00 0.00 0.00 59 1015.5
20210122200232 76 289 6.0 13.0 0.00 0.00 0.00 59 1015.5
20210122200132 76 256 3.0 13.0 0.00 0.00 0.00 59 1015.5
20210122200032 76 167 5.0 13.0 0.00 0.00 0.00 59 1015.5
20210122195921 76 250 5.0 13.0 0.00 0.00 0.00 58 1015.5
20210122195818 77 261 4.0 13.0 0.00 0.00 0.00 59 1015.5
20210122195719 77 215 6.0 13.0 0.00 0.00 0.00 58 1015.6
20210122195616 77 250 7.0 13.0 0.00 0.00 0.00 58 1015.6
20210122195525 77 233 6.0 12.0 0.00 0.00 0.00 58 1015.6
20210122195402 77 211 6.0 12.0 0.00 0.00 0.00 58 1015.6
20210122195301 77 220 5.0 12.0 0.00 0.00 0.00 58 1015.6
20210122195201 77 278 3.0 14.0 0.00 0.00 0.00 58 1015.6
20210122195059 77 271 5.0 14.0 0.00 0.00 0.00 58 1015.6
20210122194952 77 250 5.0 14.0 0.00 0.00 0.00 58 1015.7
20210122194848 77 257 4.0 14.0 0.00 0.00 0.00 59 1015.6
20210122194744 76 261 4.0 14.0 0.00 0.00 0.00 59 1015.6
20210122194643 76 255 4.0 14.0 0.00 0.00 0.00 59 1015.6
20210122194539 76 280 5.0 14.0 0.00 0.00 0.00 58 1015.6
20210122194437 76 273 8.0 14.0 0.00 0.00 0.00 58 1015.6
20210122194337 76 246 7.0 14.0 0.00 0.00 0.00 58 1015.6
20210122194235 76 232 5.0 13.0 0.00 0.00 0.00 59 1015.6
20210122194133 76 261 5.0 13.0 0.00 0.00 0.00 58 1015.6
20210122194024 76 237 3.0 13.0 0.00 0.00 0.00 59 1015.6
20210122193928 76 215 3.0 13.0 0.00 0.00 0.00 58 1015.6
20210122193821 76 261 5.0 13.0 0.00 0.00 0.00 58 1015.6
20210122193720 76 246 9.0 13.0 0.00 0.00 0.00 57 1015.7
20210122193626 76 267 7.0 13.0 0.00 0.00 0.00 58 1015.6
20210122193525 76 266 7.0 12.0 0.00 0.00 0.00 58 1015.6
20210122193407 76 263 9.0 12.0 0.00 0.00 0.00 59 1015.7
20210122193317 77 242 7.0 12.0 0.00 0.00 0.00 58 1015.6
20210122193206 77 235 4.0 10.0 0.00 0.00 0.00 59 1015.7
20210122193105 76 237 5.0 10.0 0.00 0.00 0.00 59 1015.7
20210122192953 76 239 5.0 12.0 0.00 0.00 0.00 59 1015.8
20210122192851 76 223 3.0 12.0 0.00 0.00 0.00 59 1015.7
20210122192751 76 179 3.0 12.0 0.00 0.00 0.00 60 1015.7
20210122192645 76 267 5.0 12.0 0.00 0.00 0.00 59 1015.7
20210122192545 76 204 6.0 12.0 0.00 0.00 0.00 59 1015.7
20210122192441 76 265 5.0 12.0 0.00 0.00 0.00 59 1015.6
20210122192401 76 236 6.0 12.0 0.00 0.00 0.00 59 1015.6
20210122192236 76 244 8.0 12.0 0.00 0.00 0.00 58 1015.7
20210122192136 76 262 9.0 12.0 0.00 0.00 0.00 58 1015.6
20210122192107 76 227 7.0 12.0 0.00 0.00 0.00 57 1015.6
20210122191928 77 229 5.0 13.0 0.00 0.00 0.00 58 1015.8
20210122191827 77 236 6.0 13.0 0.00 0.00 0.00 58 1015.7
20210122191727 77 266 7.0 13.0 0.00 0.00 0.00 58 1015.8
20210122191637 77 227 7.0 13.0 0.00 0.00 0.00 58 1015.7
20210122191518 77 217 7.0 12.0 0.00 0.00 0.00 58 1015.7
20210122191409 77 265 6.0 10.0 0.00 0.00 0.00 59 1015.8
20210122191305 77 250 5.0 10.0 0.00 0.00 0.00 59 1015.7
20210122191202 77 241 5.0 9.0 0.00 0.00 0.00 60 1015.8
20210122191105 76 256 5.0 9.0 0.00 0.00 0.00 60 1015.8
20210122190958 76 186 5.0 14.0 0.00 0.00 0.00 59 1015.8
20210122190854 76 244 3.0 14.0 0.00 0.00 0.00 60 1015.8
20210122190754 76 267 5.0 14.0 0.00 0.00 0.00 60 1015.8
20210122190651 76 217 5.0 14.0 0.00 0.00 0.00 60 1015.8
20210122190551 76 271 4.0 14.0 0.00 0.00 0.00 59 1015.8
20210122190439 76 230 4.0 14.0 0.00 0.00 0.00 59 1015.8
20210122190340 76 244 5.0 14.0 0.00 0.00 0.00 60 1015.8
20210122190237 76 242 6.0 14.0 0.00 0.00 0.00 59 1015.9
20210122190132 76 257 4.0 14.0 0.00 0.00 0.00 60 1015.8
20210122190043 76 205 7.0 14.0 0.00 0.00 0.00 60 1015.9
20210122185920 76 223 9.0 14.0 0.00 0.00 0.00 60 1015.9
20210122185820 76 246 8.0 14.0 0.00 0.00 0.00 60 1015.9
20210122185720 76 270 6.0 14.0 0.00 0.00 0.00 60 1016.0
20210122185617 76 248 6.0 14.0 0.00 0.00 0.00 60 1015.9
20210122185523 75 246 6.0 14.0 0.00 0.00 0.00 60 1015.9
20210122185408 75 268 6.0 14.0 0.00 0.00 0.00 60 1015.9
20210122185305 75 256 8.0 14.0 0.00 0.00 0.00 60 1015.9
20210122185205 75 248 7.0 13.0 0.00 0.00 0.00 59 1016.0
20210122185103 75 246 6.0 13.0 0.00 0.00 0.00 59 1015.9
20210122184956 75 240 6.0 13.0 0.00 0.00 0.00 60 1015.9
20210122184858 75 267 7.0 13.0 0.00 0.00 0.00 60 1015.9
20210122184747 75 257 8.0 13.0 0.00 0.00 0.00 59 1016.1
20210122184645 76 246 9.0 13.0 0.00 0.00 0.00 59 1016.1
20210122184538 76 247 8.0 13.0 0.00 0.00 0.00 59 1016.1
20210122184434 76 268 9.0 13.0 0.00 0.00 0.00 59 1016.0
20210122184336 76 259 8.0 14.0 0.00 0.00 0.00 59 1016.1
20210122184233 76 217 8.0 12.0 0.00 0.00 0.00 59 1016.1
20210122184133 76 207 6.0 12.0 0.00 0.00 0.00 59 1016.1
20210122184031 76 252 5.0 12.0 0.00 0.00 0.00 59 1016.1
20210122183921 76 286 5.0 12.0 0.00 0.00 0.00 59 1016.1
20210122183818 75 304 4.0 12.0 0.00 0.00 0.00 60 1016.1
20210122183721 75 280 3.0 12.0 0.00 0.00 0.00 60 1016.1
20210122183612 75 243 5.0 12.0 0.00 0.00 0.00 60 1016.2
20210122183516 75 248 7.0 12.0 0.00 0.00 0.00 60 1016.2
20210122183400 75 265 8.0 12.0 0.00 0.00 0.00 59 1016.2
20210122183306 75 230 7.0 13.0 0.00 0.00 0.00 59 1016.2
20210122183200 75 229 5.0 13.0 0.00 0.00 0.00 59 1016.3
20210122183054 75 276 6.0 13.0 0.00 0.00 0.00 59 1016.3
20210122182948 75 241 6.0 14.0 0.00 0.00 0.00 59 1016.3
20210122182846 75 279 6.0 14.0 0.00 0.00 0.00 60 1016.2
20210122182743 75 184 6.0 14.0 0.00 0.00 0.00 60 1016.3
20210122182647 75 263 7.0 15.0 0.00 0.00 0.00 61 1016.2
20210122182539 75 262 8.0 15.0 0.00 0.00 0.00 60 1016.3
20210122182436 75 236 7.0 15.0 0.00 0.00 0.00 60 1016.2
20210122182333 75 252 8.0 15.0 0.00 0.00 0.00 60 1016.3
20210122182231 75 260 9.0 15.0 0.00 0.00 0.00 59 1016.4
20210122182129 75 254 7.0 15.0 0.00 0.00 0.00 59 1016.3
20210122182022 75 234 9.0 15.0 0.00 0.00 0.00 58 1016.3
20210122181918 75 247 10.0 15.0 0.00 0.00 0.00 58 1016.3
20210122181815 75 248 6.0 13.0 0.00 0.00 0.00 59 1016.3
20210122181714 75 276 4.0 13.0 0.00 0.00 0.00 59 1016.3
20210122181615 75 259 5.0 13.0 0.00 0.00 0.00 59 1016.4
20210122181521 75 261 6.0 13.0 0.00 0.00 0.00 59 1016.3
20210122181404 75 297 5.0 14.0 0.00 0.00 0.00 59 1016.3
20210122181300 75 260 3.0 14.0 0.00 0.00 0.00 60 1016.3
20210122181158 75 249 7.0 14.0 0.00 0.00 0.00 59 1016.4
20210122181057 75 294 8.0 14.0 0.00 0.00 0.00 59 1016.4
20210122180949 75 260 6.0 14.0 0.00 0.00 0.00 59 1016.4
20210122180848 75 267 4.0 14.0 0.00 0.00 0.00 61 1016.4
20210122180750 75 247 4.0 14.0 0.00 0.00 0.00 60 1016.5
20210122180644 75 250 7.0 14.0 0.00 0.00 0.00 60 1016.5
20210122180537 75 234 7.0 13.0 0.00 0.00 0.00 59 1016.5
20210122180439 75 235 4.0 14.0 0.00 0.00 0.00 61 1016.5
20210122180331 75 230 5.0 14.0 0.00 0.00 0.00 62 1016.5
20210122180239 75 256 5.0 14.0 0.00 0.00 0.00 62 1016.5
20210122180132 75 252 3.0 14.0 0.00 0.00 0.00 62 1016.4
20210122180027 75 75 5.0 14.0 0.00 0.00 0.00 61 1016.4
20210122175928 75 211 7.0 14.0 0.00 0.00 0.00 61 1016.4
20210122175816 75 261 9.0 14.0 0.00 0.00 0.00 61 1016.5
20210122175716 75 263 9.0 14.0 0.00 0.00 0.00 61 1016.6
20210122175612 75 248 7.0 14.0 0.00 0.00 0.00 61 1016.6
20210122175517 75 245 4.0 14.0 0.00 0.00 0.00 62 1016.5
20210122175402 75 254 4.0 14.0 0.00 0.00 0.00 61 1016.6
20210122175306 74 214 5.0 14.0 0.00 0.00 0.00 61 1016.6
20210122175158 74 188 5.0 14.0 0.00 0.00 0.00 62 1016.6
20210122175057 74 257 6.0 14.0 0.00 0.00 0.00 62 1016.7
20210122174948 74 243 7.0 14.0 0.00 0.00 0.00 62 1016.8
20210122174848 74 248 6.0 14.0 0.00 0.00 0.00 62 1016.8
20210122174758 74 259 5.0 15.0 0.00 0.00 0.00 62 1016.8
20210122174644 74 270 4.0 15.0 0.00 0.00 0.00 62 1016.8
20210122174535 74 273 6.0 15.0 0.00 0.00 0.00 62 1016.8
20210122174431 74 169 7.0 15.0 0.00 0.00 0.00 62 1016.9
20210122174328 74 308 6.0 15.0 0.00 0.00 0.00 61 1016.9
20210122174227 74 261 7.0 15.0 0.00 0.00 0.00 62 1016.9
20210122174128 74 265 9.0 15.0 0.00 0.00 0.00 61 1017.0
20210122174021 74 219 7.0 15.0 0.00 0.00 0.00 61 1017.1
20210122173915 74 243 5.0 14.0 0.00 0.00 0.00 61 1017.0
20210122173814 74 223 7.0 14.0 0.00 0.00 0.00 61 1017.0
20210122173711 74 253 8.0 14.0 0.00 0.00 0.00 62 1017.1
20210122173610 74 250 7.0 14.0 0.00 0.00 0.00 62 1017.1
20210122173522 74 259 5.0 14.0 0.00 0.00 0.00 63 1017.0
20210122173404 74 200 5.0 14.0 0.00 0.00 0.00 63 1017.1
20210122173304 74 251 6.0 14.0 0.00 0.00 0.00 62 1017.1
20210122173159 74 196 5.0 14.0 0.00 0.00 0.00 63 1017.2
20210122173054 74 246 6.0 14.0 0.00 0.00 0.00 62 1017.2
20210122172950 74 226 7.0 14.0 0.00 0.00 0.00 62 1017.2
20210122172843 74 248 9.0 14.0 0.00 0.00 0.00 62 1017.2
20210122172741 74 231 8.0 14.0 0.00 0.00 0.00 62 1017.2
20210122172642 74 227 6.0 12.0 0.00 0.00 0.00 63 1017.3
20210122172530 74 207 6.0 12.0 0.00 0.00 0.00 64 1017.3
20210122172427 74 239 6.0 12.0 0.00 0.00 0.00 63 1017.3
20210122172322 74 248 7.0 12.0 0.00 0.00 0.00 63 1017.2
20210122172222 74 261 7.0 12.0 0.00 0.00 0.00 63 1017.3
20210122172119 74 250 7.0 12.0 0.00 0.00 0.00 64 1017.3
20210122172023 73 276 5.0 12.0 0.00 0.00 0.00 66 1017.3
20210122171909 73 248 5.0 14.0 0.00 0.00 0.00 66 1017.3
20210122171804 73 296 4.0 14.0 0.00 0.00 0.00 66 1017.4
20210122171705 73 261 3.0 14.0 0.00 0.00 0.00 67 1017.3
20210122171602 73 277 3.0 14.0 0.00 0.00 0.00 67 1017.5
20210122171452 73 276 3.0 14.0 0.00 0.00 0.00 66 1017.5
20210122171350 73 271 5.0 14.0 0.00 0.00 0.00 66 1017.4
20210122171246 73 275 7.0 14.0 0.00 0.00 0.00 66 1017.5
20210122171144 73 263 6.0 14.0 0.00 0.00 0.00 66 1017.5
20210122171035 73 250 6.0 12.0 0.00 0.00 0.00 66 1017.5
20210122170935 73 236 6.0 12.0 0.00 0.00 0.00 65 1017.5
20210122170829 73 291 6.0 12.0 0.00 0.00 0.00 66 1017.6
20210122170733 73 265 7.0 12.0 0.00 0.00 0.00 66 1017.6
20210122170631 73 260 7.0 14.0 0.00 0.00 0.00 66 1017.6